GEFSCGP_con_prob3kmehi_048.txt.gz
EHI
0 0 0 0 0 0 0 0 0 0 0 0 0 3 8 12 14 12 8 5 4 5 7 4 1 0 0 0 0 0 0 1 1 0 0 0 0 0 0 0 0 0 0 0
0 0 0 0 0 0 0 0 0 0 0 0 0 3 6 10 11 8 5 3 2 3 4 3 1 0 0 0 0 1 2 3 3 1 1 0 0 0 0 0 0 0 0 0
0 0 0 0 0 0 0 0 0 0 0 0 0 1 4 6 6 5 3 2 1 1 1 1 0 0 0 0 1 3 7 8 7 5 2 1 0 0 0 0 0 0 0 0
0 0 0 0 0 0 0 0 0 0 0 0 0 0 2 3 4 4 4 3 2 1 0 0 0 0 0 0 2 7 12 16 14 10 4 1 0 0 0 0 0 0 0 0
0 0 0 0 0 0 0 0 0 0 0 0 0 0 0 1 3 4 4 3 2 1 0 0 0 1 1 1 3 9 18 23 20 12 6 2 1 0 0 0 0 0 0 0
0 0 0 0 0 0 0 0 0 0 0 0 0 0 0 0 1 2 3 2 2 1 0 0 1 2 2 2 4 8 15 20 17 10 4 2 1 0 0 0 0 0 0 0
0 0 0 0 0 0 0 0 0 0 0 0 0 0 0 0 0 0 1 1 2 2 1 0 1 2 2 2 3 4 7 9 8 4 2 1 0 0 0 0 0 0 0 0
0 0 0 0 0 0 0 0 0 0 0 0 0 0 0 0 0 0 0 0 1 1 0 0 0 1 1 1 1 1 1 2 2 1 0 0 0 0 0 0 0 0 0 0
0 0 0 0 0 0 0 0 0 0 0 0 0 0 0 0 0 0 0 0 0 0 0 0 0 0 0 0 0 0 1 1 1 0 0 0 0 0 0 0 0 0 0 0
0 0 0 0 0 0 0 0 0 0 0 0 0 0 0 0 0 0 0 0 0 0 0 0 0 0 0 0 0 0 0 0 0 0 0 0 0 0 0 0 0 0 0 0
0 0 0 0 0 0 0 0 0 0 0 0 0 0 0 0 0 0 0 0 0 0 0 0 0 0 0 0 0 0 0 0 0 0 0 0 0 0 0 0 0 0 0 0
0 0 0 0 0 0 0 0 0 0 0 0 0 0 0 0 0 0 0 0 0 0 0 0 0 0 0 0 0 0 0 0 0 0 0 0 0 0 0 0 0 0 0 0
0 0 0 0 0 0 0 0 0 0 0 0 0 0 0 0 0 0 0 0 0 0 0 0 0 0 0 0 0 0 0 0 0 0 0 0 0 0 0 0 0 0 0 0
0 0 0 0 0 0 0 0 0 0 0 0 0 0 0 0 0 0 0 0 0 0 0 0 0 0 0 0 0 0 0 0 0 0 0 0 0 0 0 0 0 0 0 0
0 0 0 0 0 0 0 0 0 0 0 0 0 0 0 0 0 0 0 0 0 0 0 0 0 0 0 0 0 0 0 0 0 0 0 0 0 0 0 0 0 0 0 0
0 0 0 0 0 0 0 0 0 0 0 0 0 0 0 0 0 0 0 0 0 0 0 0 0 0 0 0 0 0 0 0 0 0 0 0 0 0 0 0 0 0 0 0
0 0 0 0 0 0 0 0 0 0 0 0 0 0 0 0 0 0 0 0 0 0 0 0 0 0 0 0 0 0 0 0 0 0 0 0 0 0 0 0 0 0 0 0
0 0 0 0 0 0 0 0 0 0 0 0 0 0 0 0 0 0 0 0 0 0 0 0 0 0 0 0 0 0 0 0 0 0 0 0 0 0 0 0 0 0 0 0
0 0 0 0 0 0 0 0 0 0 0 0 0 0 0 0 0 0 0 0 0 0 0 0 0 0 0 0 0 0 0 0 0 0 0 0 0 0 0 0 0 0 0 0
0 0 0 0 0 0 0 0 0 0 0 0 0 0 0 0 0 0 0 0 0 0 0 0 0 0 0 0 0 0 0 0 0 0 0 0 0 0 0 0 0 0 0 0
0 0 0 0 0 0 0 0 0 0 0 0 0 0 0 0 0 0 0 0 0 0 0 0 0 1 1 1 0 0 0 0 0 0 0 0 0 0 0 0 0 0 0 0
0 0 0 0 0 0 0 0 0 0 0 0 0 0 0 0 0 0 0 0 0 0 0 0 0 1 2 2 1 0 0 0 0 0 0 0 0 0 0 0 0 0 0 0
0 0 0 0 0 0 0 0 0 0 0 0 0 0 0 0 0 0 0 0 0 0 0 0 0 1 3 3 2 1 0 0 0 0 0 0 0 0 0 0 0 0 0 0
0 0 0 0 0 0 0 0 0 0 0 0 0 0 0 0 0 0 0 0 0 0 0 0 0 1 2 3 3 1 0 0 0 0 0 0 0 0 0 0 0 0 0 0
0 0 0 0 0 0 0 0 0 0 0 0 0 0 0 0 0 0 0 0 0 0 0 0 0 0 1 3 3 2 0 0 0 0 0 0 0 0 0 0 0 0 0 0
0 0 0 0 0 0 0 0 0 0 0 0 0 0 0 0 0 0 0 0 0 0 0 0 0 0 1 3 3 2 1 0 0 0 0 0 0 0 0 0 0 0 0 0

GEFSCGP_con_prob3kmehi_054.txt.gz
EHI
0 0 0 0 0 0 0 0 0 0 0 0 1 3 9 16 23 29 33 35 35 34 33 30 26 22 20 22 23 19 13 10 6 4 4 5 5 3 1 0 0 0 0 0
0 0 0 0 0 0 0 0 0 0 0 0 1 2 8 16 23 27 27 25 25 27 26 22 17 14 13 15 18 17 15 14 13 11 9 7 5 4 2 1 0 0 0 0
0 0 0 0 0 0 0 0 0 0 0 0 1 2 6 13 19 22 22 20 19 20 20 17 12 7 6 8 12 18 27 32 29 24 15 7 4 3 2 1 0 0 0 0
0 0 0 0 0 0 0 0 0 0 0 0 0 2 6 9 12 16 18 19 18 15 16 17 12 6 4 6 14 32 51 56 50 37 21 8 3 1 1 1 1 1 0 0
0 0 0 0 0 0 0 0 0 0 0 0 0 2 4 5 6 10 12 16 16 13 12 12 11 7 5 7 21 48 71 75 66 49 29 13 4 1 0 1 2 1 0 0
0 0 0 0 0 0 0 0 0 0 0 0 0 1 2 2 3 4 6 11 16 15 10 9 8 9 9 12 26 53 77 81 70 53 32 17 8 3 1 1 1 0 0 0
0 0 0 0 0 0 0 0 0 0 0 0 0 0 1 1 1 1 3 8 15 16 11 8 7 10 13 17 28 52 72 75 63 46 28 16 8 4 2 1 0 0 0 0
0 0 0 0 0 0 0 0 0 0 0 0 0 0 0 0 0 0 1 5 10 12 10 6 5 8 13 18 29 48 64 64 51 35 23 14 7 3 1 0 0 0 0 0
0 0 0 0 0 0 0 0 0 0 0 0 0 0 0 0 0 0 1 3 5 7 7 6 4 5 9 19 30 44 53 51 36 24 16 10 5 2 0 0 0 0 0 0
0 0 0 0 0 0 0 0 0 0 0 0 0 0 0 0 0 0 1 2 2 3 4 5 4 4 8 17 28 35 39 35 23 13 8 4 3 2 1 1 0 0 0 0
0 0 0 0 0 0 0 0 0 0 0 0 0 0 0 0 0 0 0 0 0 0 1 2 2 4 7 12 17 22 24 21 13 6 2 1 1 1 2 1 0 0 0 0
0 0 0 0 0 0 0 0 0 0 0 0 0 0 0 0 0 0 0 0 0 0 0 0 1 4 6 7 8 10 10 9 5 2 1 1 1 1 1 1 0 0 0 0
0 0 0 0 0 0 0 0 0 0 0 0 0 0 0 0 0 0 0 0 0 0 0 2 6 10 9 6 4 3 2 2 1 1 1 2 2 2 2 2 1 1 1 0
0 0 0 0 0 0 0 0 0 0 0 0 0 0 0 0 0 0 0 0 0 0 1 7 20 25 19 10 4 1 0 0 0 0 2 3 3 3 4 4 3 2 1 1
0 0 0 0 0 0 0 0 0 0 0 0 0 0 0 0 0 0 0 0 0 0 1 11 31 41 33 19 8 2 1 1 1 1 2 3 3 3 4 5 5 3 1 0
0 0 0 0 0 0 0 0 0 0 0 0 0 0 0 0 0 0 0 0 0 0 1 11 33 50 50 35 20 12 9 7 6 5 4 3 3 3 3 3 3 2 1 1
0 0 0 0 0 0 0 1 0 0 1 0 0 0 0 0 0 0 0 1 1 0 1 9 28 52 61 50 37 31 25 18 15 12 8 5 4 4 4 3 3 3 4 5
0 0 0 0 0 0 0 0 0 0 1 1 1 1 0 0 0 0 0 1 1 0 1 6 19 37 50 50 47 46 39 30 24 19 14 9 7 7 7 6 6 8 10 11
0 0 0 0 0 0 0 0 0 1 2 3 4 2 1 0 0 0 0 1 1 0 1 3 7 17 33 46 54 54 48 39 31 24 20 15 12 11 11 11 11 13 14 13
0 0 0 0 0 0 0 0 1 1 2 3 4 2 1 0 0 1 2 4 6 7 8 7 6 12 33 57 67 66 60 51 41 33 28 24 20 19 18 18 18 16 12 10
0 0 0 0 0 1 1 2 4 4 3 2 1 1 0 0 1 4 11 17 20 21 20 19 20 29 50 73 81 80 75 67 56 45 38 33 28 23 21 24 25 17 9 6
0 0 0 0 2 3 3 3 5 5 3 1 0 0 0 1 4 11 23 31 32 31 30 32 40 53 69 82 88 87 86 81 70 58 49 42 35 26 21 25 25 17 9 6
0 1 1 3 5 6 4 2 2 2 1 0 0 0 0 2 6 15 25 32 32 31 31 35 45 59 71 77 80 81 83 83 76 68 61 53 44 33 27 24 19 13 9 6
1 1 3 6 8 7 4 1 0 0 0 0 0 0 0 1 5 12 17 21 22 23 25 28 35 43 50 54 57 61 65 69 69 67 63 55 44 36 31 25 16 10 8 6
1 2 3 8 11 10 5 1 0 0 0 0 0 0 0 0 2 6 9 11 12 13 14 16 20 23 25 28 32 36 42 49 54 54 49 40 30 26 26 23 16 10 7 5
3 3 4 10 15 12 5 1 0 0 0 0 0 0 0 0 1 3 5 6 7 7 8 9 11 12 13 14 17 22 28 37 43 44 37 25 18 17 20 20 15 8 4 3

GEFSCGP_con_prob3kmehi_060.txt.gz
EHI
0 0 0 0 0 0 0 0 0 0 0 0 0 1 2 6 10 13 15 14 14 13 12 11 11 11 8 3 1 0 0 0 0 0 0 0 0 0 0 0 0 0 0 0
0 0 0 0 0 0 0 0 0 0 0 0 0 0 1 4 9 13 15 16 15 13 12 10 9 7 4 1 0 0 0 0 0 0 0 0 0 0 0 0 0 0 0 0
0 0 0 0 0 0 0 0 0 0 0 0 0 0 0 3 8 12 15 17 17 16 13 10 7 4 2 0 0 0 0 0 0 0 0 0 0 0 0 0 0 0 0 0
0 0 0 0 0 0 0 0 0 0 0 0 0 0 0 2 7 12 15 18 20 19 16 11 8 5 3 1 0 0 0 0 0 0 0 0 0 0 0 0 0 0 0 0
0 0 0 0 0 0 0 0 0 0 0 0 0 0 0 1 4 9 15 20 22 20 15 12 9 6 3 1 0 1 1 1 0 0 0 0 0 0 0 0 0 0 0 0
0 0 0 0 0 0 0 0 0 0 0 0 0 0 0 0 1 4 11 18 20 18 14 11 10 6 3 2 2 3 3 1 0 1 0 0 0 0 0 0 0 0 0 0
0 0 0 0 0 0 0 0 0 0 0 0 0 0 0 0 0 1 6 11 16 16 13 11 10 7 5 4 5 6 4 1 1 1 0 0 0 0 0 0 0 0 0 0
0 0 0 0 0 0 0 0 0 0 0 0 0 0 0 0 0 0 2 4 8 11 11 10 10 9 9 9 9 9 5 3 3 2 0 0 0 0 0 0 0 0 0 0
0 0 0 0 0 0 0 0 0 0 0 0 0 0 0 0 0 0 0 1 2 5 8 9 9 10 10 11 13 13 11 8 6 4 2 0 0 0 0 0 0 0 0 0
0 0 0 0 0 0 0 0 0 0 0 0 0 0 0 0 0 1 0 0 0 2 5 6 7 7 7 10 15 18 15 11 8 6 4 1 0 0 0 0 0 0 0 0
0 0 0 0 0 0 0 0 0 0 0 0 0 0 0 0 0 0 0 0 0 1 3 3 4 4 4 8 14 16 13 10 8 6 3 1 0 0 0 0 0 0 0 0
0 0 0 0 0 0 0 0 0 0 0 0 0 0 0 0 0 0 0 0 0 0 1 2 2 2 3 6 9 9 8 7 6 4 1 0 0 0 0 0 0 0 0 0
0 0 0 0 0 0 0 0 0 0 0 0 0 0 0 0 0 0 0 0 0 0 0 1 1 1 1 2 3 3 4 5 3 1 0 0 0 0 0 0 0 0 0 0
0 0 0 0 0 0 0 0 0 0 0 0 0 0 0 0 0 0 0 0 0 0 0 0 0 0 0 0 0 0 1 1 1 0 0 0 0 0 0 0 0 0 0 0
0 0 0 0 0 0 0 0 0 0 0 0 0 0 0 0 0 0 0 0 0 0 0 0 0 0 0 0 0 0 0 0 0 0 0 0 0 0 0 0 0 0 0 0
0 0 0 0 0 0 0 0 0 0 0 0 0 0 0 0 0 0 0 0 0 0 0 0 0 0 0 0 0 0 0 0 0 0 0 0 0 0 0 0 0 0 0 0
0 0 0 0 0 0 0 0 0 0 0 0 0 0 0 0 0 0 0 0 0 0 0 0 0 0 0 0 0 0 0 0 0 0 0 0 0 0 0 0 0 0 0 0
0 0 0 0 0 0 0 0 0 0 0 0 0 0 0 0 0 0 0 0 0 0 0 0 0 0 0 0 0 0 0 0 0 0 0 0 0 0 0 0 0 0 0 0
0 0 0 0 0 0 0 0 0 0 0 0 0 0 0 0 0 0 0 0 0 0 0 0 0 0 0 0 0 0 0 0 0 0 0 0 0 0 0 0 0 0 0 0
0 0 0 0 0 0 0 0 0 0 0 0 0 0 0 0 0 0 0 0 0 0 0 0 0 0 0 0 0 0 0 0 0 0 0 0 0 0 0 0 0 0 0 0
0 0 0 0 0 0 0 0 0 0 0 0 0 0 0 0 0 0 0 0 0 0 0 0 0 0 0 0 0 0 0 0 0 0 0 0 0 0 0 0 0 0 0 0
0 0 0 0 0 0 0 0 0 0 0 0 0 0 0 0 0 0 0 0 0 0 0 0 0 1 1 0 0 0 0 0 0 0 0 0 0 0 0 0 0 0 0 0
0 0 0 0 0 0 0 0 0 0 0 0 0 0 0 0 0 0 0 0 0 0 0 0 0 1 1 0 0 0 0 0 0 0 0 0 0 0 0 0 0 0 0 0
0 0 0 0 0 0 0 0 0 0 0 0 0 0 0 0 0 0 0 0 0 0 0 0 0 0 0 0 0 0 0 0 0 0 0 0 0 0 0 0 0 0 0 0
0 0 0 0 0 0 0 0 0 0 0 0 0 0 0 0 0 0 0 0 0 0 0 0 0 0 0 0 0 0 0 0 0 0 0 0 0 0 0 0 0 0 0 0
0 0 0 0 0 0 0 0 0 0 0 0 0 0 0 0 0 0 0 0 0 0 0 0 0 0 0 0 0 0 0 0 0 0 0 0 0 0 0 0 0 0 0 0

GEFSCGP_con_prob3kmehi_066.txt.gz
EHI
0 0 0 0 0 0 0 0 0 0 0 0 0 0 1 5 7 6 5 6 7 7 6 5 5 6 5 2 1 0 0 0 0 0 0 0 0 0 0 0 0 0 0 0
0 0 0 0 0 0 0 0 0 0 0 0 0 0 1 3 5 5 5 5 6 7 7 5 4 5 3 1 0 0 0 0 0 0 0 0 0 0 0 0 0 0 0 0
0 0 0 0 0 0 0 0 0 0 0 0 0 0 0 1 2 3 4 5 6 7 7 5 4 3 1 0 0 0 0 0 0 0 0 0 0 0 0 0 0 0 0 0
0 0 0 0 0 0 0 0 0 0 0 0 0 0 0 0 1 1 3 5 7 7 6 6 4 3 1 0 0 0 0 0 0 0 0 0 0 0 0 0 0 0 0 0
0 0 0 0 0 0 0 0 0 0 0 0 0 0 0 0 0 0 2 5 7 7 7 6 5 3 1 0 0 0 0 0 0 0 0 0 0 0 0 0 0 0 0 0
0 0 0 0 0 0 0 0 0 0 0 0 0 0 0 0 0 0 0 2 5 7 8 7 6 4 2 0 0 0 0 0 0 0 0 0 0 0 0 0 0 0 0 0
0 0 0 0 0 0 0 0 0 0 0 0 0 0 0 0 0 0 0 1 3 6 8 7 6 4 2 0 0 0 0 0 0 0 0 0 0 0 0 0 0 0 0 0
0 0 0 0 0 0 0 0 0 0 0 0 0 0 0 0 0 0 0 0 2 4 6 7 6 4 3 2 0 0 0 0 0 0 0 0 0 0 0 0 0 0 0 0
0 0 0 0 0 0 0 0 0 0 0 0 0 0 0 0 0 0 0 0 0 2 4 5 5 4 5 4 2 0 0 0 0 0 0 0 0 0 0 0 0 0 0 0
0 0 0 0 0 0 0 0 0 0 0 0 0 0 0 0 0 0 0 0 0 0 1 2 3 4 5 5 3 1 0 0 0 0 0 0 0 0 0 0 0 0 0 0
0 0 0 0 0 0 0 0 0 0 0 0 0 0 0 0 0 0 0 0 0 0 0 0 1 2 4 4 3 1 0 0 0 0 0 0 0 0 0 0 0 0 0 0
0 0 0 0 0 0 0 0 0 0 0 0 0 0 0 0 0 0 0 0 0 0 0 0 0 1 2 2 1 1 0 0 0 0 0 0 0 0 0 0 0 0 0 0
0 0 0 0 0 0 0 0 0 0 0 0 0 0 0 0 0 0 0 0 0 0 0 0 0 1 1 1 0 0 0 0 0 0 0 0 0 0 0 0 0 0 0 0
0 0 0 0 0 0 0 0 0 0 0 0 0 0 0 0 0 0 0 0 0 0 0 0 0 0 0 0 0 0 0 0 0 0 0 0 0 0 0 0 0 0 0 0
0 0 0 0 0 0 0 0 0 0 0 0 0 0 0 0 0 0 0 0 0 0 0 0 0 0 0 0 0 0 0 0 0 0 0 0 0 0 0 0 0 0 0 0
0 0 0 0 0 0 0 0 0 0 0 0 0 0 0 0 0 0 0 0 0 0 0 0 0 0 0 0 0 0 0 0 0 0 0 0 0 0 0 0 0 0 0 0
0 0 0 0 0 0 0 0 0 0 0 0 0 0 0 0 0 0 0 0 0 0 0 0 0 0 0 0 0 0 0 0 0 0 0 0 0 0 0 0 0 0 0 0
0 0 0 0 0 0 0 0 0 0 0 0 0 0 0 0 0 0 0 0 0 0 0 0 0 0 0 0 0 0 0 0 0 0 0 0 0 0 0 0 0 0 0 0
0 0 0 0 0 0 0 0 0 0 0 0 0 0 0 0 0 0 0 0 0 0 0 0 0 0 0 0 0 0 0 0 0 0 0 0 0 0 0 0 0 0 0 0
0 0 0 0 0 0 0 0 0 0 0 0 0 0 0 0 0 0 0 0 0 0 0 0 0 0 0 0 0 0 0 0 0 0 0 0 0 0 0 0 0 0 0 0
0 0 0 0 0 0 0 0 0 0 0 0 0 0 0 0 0 0 0 0 0 0 0 0 0 0 0 0 0 0 0 0 0 0 0 0 0 0 0 0 0 0 0 0
0 0 0 0 0 0 0 0 0 0 0 0 0 0 0 0 0 0 0 0 0 0 0 0 0 0 0 0 0 0 0 0 0 0 0 0 0 0 0 0 0 0 0 0
0 0 0 0 0 0 0 0 0 0 0 0 0 0 0 0 0 0 0 0 0 0 0 0 0 0 0 0 0 0 0 0 0 0 0 0 0 0 0 0 0 0 0 0
0 0 0 0 0 0 0 0 0 0 0 0 0 0 0 0 0 0 0 0 0 0 0 0 0 0 0 0 0 0 0 0 0 0 0 0 0 0 0 0 0 0 0 0
0 0 0 0 0 0 0 0 0 0 0 0 0 0 0 0 0 0 0 0 0 0 0 0 0 0 0 0 0 0 0 0 0 0 0 0 0 0 0 0 0 0 0 0
0 0 0 0 0 0 0 0 0 0 0 0 0 0 0 0 0 0 0 0 0 0 0 0 0 0 0 0 0 0 0 0 0 0 0 0 0 0 0 0 0 0 0 0

GEFSCGP_con_prob3kmehi_072.txt.gz
EHI
0 0 0 0 0 0 0 0 0 0 0 0 0 0 1 3 4 6 10 16 17 17 18 18 15 13 13 14 12 7 5 5 5 3 2 2 1 0 0 0 0 0 0 0
0 0 0 0 0 0 0 0 0 0 0 0 0 0 1 2 3 4 8 12 15 17 17 16 14 12 12 12 10 6 4 5 4 2 1 1 0 0 0 0 0 0 0 0
0 0 0 0 0 0 0 0 0 0 0 0 0 0 0 1 1 2 5 9 13 16 16 15 13 11 9 8 6 3 3 3 2 1 0 0 0 0 0 0 0 0 0 0
0 0 0 0 0 0 0 0 0 0 0 0 0 0 0 0 0 1 3 6 10 14 16 15 14 10 6 4 3 2 2 1 0 0 0 0 0 0 0 0 0 0 0 0
0 0 0 0 0 0 0 0 0 0 0 0 0 0 0 0 0 0 1 4 9 12 14 14 13 9 5 3 3 2 1 0 0 0 0 0 0 0 0 0 0 0 0 0
0 0 0 0 0 0 0 0 0 0 0 0 0 0 0 0 0 0 1 3 6 9 11 11 11 9 6 5 5 3 1 0 0 0 1 1 0 0 0 0 0 0 0 0
0 0 0 0 0 0 0 0 0 0 0 0 0 0 0 0 0 0 0 1 3 6 9 10 11 10 9 7 6 4 2 0 0 1 3 4 2 1 0 0 0 0 0 0
0 0 0 0 0 0 0 0 0 0 0 0 0 0 0 0 0 0 0 1 2 4 7 10 11 11 10 9 7 5 3 1 1 3 6 7 6 3 1 1 1 0 0 0
0 0 0 0 0 0 0 0 0 0 0 0 0 0 0 0 0 0 0 1 2 3 4 7 9 8 8 8 7 6 5 4 3 5 7 9 9 7 4 3 2 1 0 0
0 0 0 0 0 0 0 0 0 0 0 0 0 0 0 0 0 0 0 0 1 2 3 4 4 5 5 6 7 7 7 7 6 7 8 9 10 11 10 7 4 1 0 0
0 0 0 0 0 0 0 0 0 0 0 0 0 0 0 0 0 0 0 0 1 2 2 2 2 3 4 5 6 7 8 9 9 10 11 10 10 13 15 13 8 3 1 0
0 0 0 0 0 0 0 0 0 0 0 0 0 0 0 0 0 0 0 0 0 1 1 0 2 5 7 7 7 9 10 11 12 14 17 16 15 16 17 16 13 7 3 1
0 0 0 0 0 0 0 0 0 0 0 0 0 0 0 0 0 0 0 0 0 1 2 2 4 8 10 8 7 9 10 11 12 16 22 24 24 23 21 19 17 12 6 3
0 0 0 0 0 0 0 0 0 0 0 0 0 0 0 0 0 0 0 0 1 3 6 8 11 13 14 12 10 10 11 12 14 19 25 29 29 28 25 21 19 14 7 4
0 0 0 0 0 0 0 0 0 0 0 0 0 0 0 0 0 0 0 0 1 3 7 12 17 18 18 17 14 13 16 19 22 24 27 28 28 27 24 20 17 13 7 3
0 0 0 0 0 0 0 0 0 0 0 0 0 0 0 0 0 1 1 3 4 5 6 11 15 17 18 16 14 15 19 25 28 29 26 24 23 22 19 16 13 10 7 6
1 0 0 0 0 0 0 0 0 0 0 0 0 0 0 0 1 2 3 7 11 13 13 14 14 15 15 14 13 15 19 23 27 28 25 21 17 15 15 13 11 10 12 14
2 1 0 0 0 0 0 0 0 0 0 0 1 2 1 0 1 2 3 6 11 16 19 18 15 13 14 13 13 14 15 15 18 20 19 15 10 9 10 10 9 11 14 17
2 1 0 0 0 0 0 0 0 0 0 0 1 3 1 0 1 2 2 3 6 10 13 13 11 10 11 11 11 10 9 8 8 9 10 8 6 6 7 7 7 8 9 9
1 1 0 0 0 0 0 0 0 0 0 0 1 2 1 0 2 3 2 1 4 6 6 7 7 7 8 9 9 8 6 4 4 4 4 4 4 4 5 5 6 6 5 4
1 0 0 0 0 0 0 0 0 0 0 0 0 1 2 4 7 6 3 1 3 4 4 4 4 5 6 7 7 7 5 3 2 2 2 2 2 2 2 3 3 4 3 4
1 0 0 0 0 0 0 0 0 0 0 0 0 1 4 8 9 6 3 2 1 1 2 2 2 2 2 3 4 4 2 1 1 1 1 0 0 0 0 0 1 1 1 2
1 0 0 0 0 0 0 0 0 0 0 0 0 2 4 6 6 5 3 1 0 0 0 0 0 0 0 0 1 1 0 0 0 0 0 0 0 0 0 0 0 0 0 1
0 0 0 0 0 0 0 0 0 0 0 0 0 2 2 3 3 3 2 1 0 0 0 0 0 0 0 0 0 0 0 0 0 0 0 0 0 0 0 0 0 0 0 0
0 0 0 0 0 0 0 0 0 0 0 1 1 2 2 3 3 3 1 0 0 0 0 0 0 0 0 0 0 0 0 0 0 0 0 0 0 0 0 0 0 0 0 0
0 0 0 0 0 0 0 0 0 1 1 2 3 3 4 5 4 2 1 0 0 0 0 0 0 0 0 0 0 0 0 0 0 0 0 0 0 0 0 0 0 0 0 0

GEFSCGP_con_prob3kmehi_078.txt.gz
EHI
0 0 0 0 0 0 0 0 0 0 0 0 0 4 10 13 15 21 27 31 35 38 40 45 46 44 43 44 44 42 39 36 30 25 19 12 7 4 1 1 2 1 0 0
0 0 0 0 0 0 0 0 0 0 0 0 0 4 11 13 14 19 24 30 36 40 42 44 44 42 41 40 39 38 36 32 28 23 17 11 7 4 1 1 2 1 0 0
0 0 0 0 0 0 0 0 0 0 0 0 0 4 11 14 13 14 19 27 35 39 42 43 39 36 33 32 31 31 31 30 27 21 14 9 6 3 2 2 2 1 1 0
0 0 0 0 0 0 0 0 0 0 0 0 0 2 9 13 12 10 14 24 33 37 38 40 36 29 25 22 21 24 29 32 29 22 12 7 4 2 2 3 4 3 2 1
0 0 0 0 0 0 0 0 0 0 0 0 0 1 4 8 9 9 12 21 30 33 33 34 33 27 21 16 15 20 28 32 29 21 13 7 4 3 2 4 5 4 2 1
0 0 0 0 0 0 0 0 0 1 2 1 0 0 1 2 5 8 10 17 26 28 28 30 30 26 20 16 15 19 26 28 25 18 13 8 5 3 3 5 5 3 2 1
0 0 0 0 0 0 0 0 0 1 3 1 0 0 0 1 3 6 9 15 22 24 26 29 30 26 22 19 19 22 26 26 21 15 12 8 5 4 4 4 3 1 1 1
0 0 0 0 0 0 0 0 0 1 1 1 0 0 0 1 2 3 7 13 18 22 24 28 29 26 23 22 22 24 27 26 20 13 10 8 6 3 2 2 1 0 1 1
0 0 0 0 0 0 0 0 0 0 0 0 0 1 0 1 1 1 3 8 14 19 22 26 29 26 24 25 27 30 31 30 22 15 11 9 7 5 2 1 0 0 1 1
0 0 0 0 0 0 0 0 0 0 0 0 0 0 0 2 3 1 1 4 10 15 19 25 30 30 27 27 31 35 36 33 25 19 14 11 10 9 5 3 3 3 3 3
0 0 0 0 0 0 0 0 0 0 0 0 0 0 0 2 3 1 1 2 6 10 16 23 30 33 30 27 29 32 35 33 27 21 17 15 14 14 13 12 11 12 11 11
0 0 0 0 0 0 0 0 0 0 0 0 0 0 0 2 2 2 3 3 4 8 16 24 31 34 31 27 27 29 30 30 27 25 23 21 21 22 24 24 24 25 24 23
0 0 0 0 0 0 0 0 0 0 0 0 0 1 2 3 4 5 8 7 7 13 23 33 39 40 36 33 33 32 31 29 29 31 32 33 33 34 35 35 36 39 39 37
0 0 0 0 0 0 0 0 0 0 0 0 0 3 6 8 9 11 13 13 13 20 32 44 54 54 48 45 43 40 36 33 33 37 43 45 46 48 48 46 47 50 50 47
0 0 0 0 0 0 0 0 0 0 0 0 2 9 15 17 16 15 17 20 21 25 35 50 62 64 60 57 52 46 41 38 39 46 52 54 56 58 58 57 57 59 58 53
1 2 1 1 0 0 0 0 0 0 0 0 5 17 27 28 23 22 24 25 28 33 41 53 65 69 69 65 59 51 46 44 46 52 58 60 61 62 63 62 61 64 64 60
4 5 4 2 0 0 0 0 0 0 0 2 10 26 40 41 36 34 36 36 40 46 50 55 62 68 69 64 58 53 48 45 47 52 55 58 59 59 60 60 60 63 65 63
6 9 6 2 0 0 0 0 0 1 3 9 21 36 48 51 48 45 47 49 51 54 54 53 53 57 57 52 48 46 43 40 41 43 45 46 47 48 50 50 53 57 57 55
8 10 7 1 0 0 0 0 0 2 7 15 27 39 44 46 45 45 48 50 51 51 51 46 42 41 40 37 34 31 28 26 26 27 29 29 29 32 34 35 39 44 44 43
7 8 5 1 0 0 0 0 0 3 9 16 25 32 33 33 36 40 40 41 41 40 38 33 28 26 25 24 21 17 14 11 10 11 13 13 13 16 19 21 24 26 27 27
6 7 5 2 0 0 1 2 3 7 12 16 21 27 29 32 36 37 32 28 27 24 20 17 14 12 11 11 10 8 5 3 2 3 3 3 4 5 8 10 11 11 11 11
6 7 7 5 4 7 8 7 10 15 16 14 18 28 35 38 37 32 26 19 15 12 9 7 5 4 3 4 4 3 2 1 1 1 1 1 1 1 2 2 2 2 2 2
3 5 7 7 8 12 13 11 12 14 12 11 19 31 38 36 31 25 19 13 8 6 4 2 1 1 1 1 1 1 0 0 0 0 0 0 0 0 0 0 0 0 0 0
0 1 3 4 6 8 9 7 6 7 8 13 24 34 37 31 22 17 13 8 5 3 2 1 0 0 0 0 0 0 0 0 0 0 0 0 0 0 0 0 0 0 0 0
0 0 0 1 2 4 5 4 5 8 13 22 30 34 34 27 17 11 9 6 4 3 2 1 0 0 0 0 0 0 0 0 0 0 0 0 0 0 0 0 0 0 0 0
0 0 0 1 2 5 6 6 8 14 22 31 35 34 31 24 14 9 7 6 5 3 2 2 1 0 0 0 0 0 0 0 0 0 0 0 0 0 0 0 0 0 0 0

GEFSCGP_con_prob3kmehi_084.txt.gz
EHI
0 0 0 0 0 0 0 0 0 0 0 2 3 2 4 10 14 17 22 30 34 34 32 30 28 26 25 22 19 19 18 14 10 8 4 1 0 0 0 0 0 0 0 0
0 0 0 0 0 0 0 0 0 0 0 2 2 1 3 7 11 14 19 27 32 31 28 26 25 25 23 19 16 16 14 12 9 6 2 0 0 0 0 0 0 0 0 0
0 0 0 0 0 0 0 0 0 0 0 1 1 0 1 3 6 9 13 20 27 29 27 25 23 22 19 16 13 11 11 9 6 3 1 0 0 0 0 0 0 0 0 0
0 0 0 0 0 0 0 0 0 0 0 0 0 0 0 1 2 3 7 13 22 28 28 25 23 21 17 14 10 8 8 6 4 2 1 0 0 0 0 0 0 0 0 0
0 0 0 0 0 0 0 0 0 0 0 0 0 0 0 0 0 1 3 9 18 25 26 24 22 19 16 13 9 7 5 4 3 2 1 0 0 0 0 0 0 0 0 0
0 0 0 0 0 0 0 0 0 0 0 0 0 0 0 0 0 1 4 9 16 22 23 20 17 16 13 10 8 6 4 2 2 1 0 0 0 0 0 0 0 0 0 0
0 0 0 0 0 0 0 0 0 0 0 0 0 0 0 0 1 2 5 9 14 18 19 17 14 12 11 10 9 7 5 3 3 1 1 0 0 0 0 0 0 0 0 0
0 0 0 0 0 0 0 0 0 0 0 0 0 0 0 0 1 2 4 7 10 12 14 15 13 12 12 12 13 11 7 5 4 3 2 1 0 0 0 0 0 0 0 0
0 0 0 0 0 0 0 0 0 0 0 0 0 0 0 0 0 2 3 3 5 7 10 13 13 14 15 14 15 13 10 7 5 4 3 2 1 0 0 0 0 0 0 0
0 0 0 0 0 0 0 0 0 0 0 0 0 0 0 0 1 2 2 2 3 6 9 11 13 16 17 16 16 15 12 9 6 5 3 2 1 0 0 0 0 0 0 0
0 0 0 0 0 0 0 0 0 0 0 0 0 0 0 0 2 3 3 3 4 7 10 10 12 16 18 18 18 18 15 11 8 6 4 2 1 0 0 0 0 0 0 0
0 0 0 0 0 0 0 0 0 0 0 0 0 0 1 1 2 4 4 3 4 7 9 9 11 14 17 18 18 18 16 13 8 5 4 2 1 0 0 0 0 0 0 0
0 0 0 0 0 0 0 0 0 0 0 0 0 1 2 3 4 5 5 4 5 8 10 9 10 13 14 16 16 16 17 15 10 6 5 3 1 1 1 1 1 0 0 0
0 0 0 0 0 0 0 0 0 0 0 0 0 2 3 4 6 7 6 6 8 11 12 10 10 11 12 13 13 14 16 15 12 8 7 5 2 2 2 2 2 1 0 0
0 0 0 0 0 0 0 0 0 0 0 0 2 3 3 4 7 8 9 10 12 14 14 12 10 10 11 12 12 13 13 13 11 9 8 6 5 4 4 3 2 1 1 1
0 0 0 0 0 0 0 0 0 0 0 1 3 4 3 4 7 9 11 13 16 17 16 13 10 8 9 11 12 12 11 10 9 8 7 7 7 6 5 4 3 2 2 3
0 0 0 0 0 0 0 0 0 0 1 2 4 7 8 10 12 12 13 15 17 18 16 11 7 6 7 7 8 8 7 6 6 5 5 6 5 5 3 2 2 2 2 2
0 0 0 0 0 0 0 0 0 2 4 4 7 13 18 22 21 17 15 13 12 12 11 7 4 4 4 3 3 3 2 2 3 3 3 3 2 1 0 0 1 1 0 1
0 0 0 0 0 0 0 0 1 5 7 8 13 22 29 32 29 20 13 9 7 6 5 3 1 1 1 1 1 0 0 0 1 1 1 1 0 0 0 0 0 0 0 0
0 0 0 0 0 0 0 0 1 5 7 9 17 26 29 29 24 15 8 5 4 4 2 1 0 0 0 0 0 0 0 0 0 0 0 0 0 0 0 0 0 0 0 0
0 0 0 0 0 0 0 0 0 2 3 7 14 20 19 16 12 8 4 3 2 1 1 0 0 0 0 0 0 0 0 0 0 0 0 0 0 0 0 0 0 0 0 0
0 0 0 0 0 0 0 0 0 0 1 4 9 11 11 7 6 4 3 2 1 0 0 0 0 0 0 0 0 0 0 0 0 0 0 0 0 0 0 0 0 0 0 0
0 0 0 0 0 0 0 0 0 1 1 2 4 6 6 5 4 3 2 1 0 0 0 0 0 0 0 0 0 0 0 0 0 0 0 0 0 0 0 0 0 0 0 0
0 0 0 0 0 0 0 0 0 1 2 1 2 3 4 4 2 1 1 0 0 0 0 0 0 0 0 0 0 0 0 0 0 0 0 0 0 0 0 0 0 0 0 0
0 0 0 0 0 0 0 0 0 1 1 1 1 2 3 2 1 0 0 0 0 0 0 0 0 0 0 0 0 0 0 0 0 0 0 0 0 0 0 0 0 0 0 0
0 0 0 0 0 0 0 0 0 0 1 0 1 2 2 1 0 0 0 0 0 0 0 0 0 0 0 0 0 0 0 0 0 0 0 0 0 0 0 0 0 0 0 0

GEFSCGP_con_prob3kmehi_090.txt.gz
EHI
0 0 0 0 0 0 0 0 0 0 0 0 1 2 2 5 9 13 15 15 14 14 16 18 19 19 19 15 11 9 5 3 2 2 1 0 0 0 0 0 0 0 0 0
0 0 0 0 0 0 0 0 0 0 0 0 1 2 1 3 6 8 9 11 11 12 15 18 19 19 18 15 11 9 7 4 3 2 1 0 0 0 0 0 0 0 0 0
0 0 0 0 0 0 0 0 0 0 0 0 1 1 0 1 2 2 4 7 9 11 13 15 17 18 17 14 11 10 8 6 4 3 2 1 0 0 0 0 0 0 0 0
0 0 0 0 0 0 0 0 0 0 0 0 0 0 0 0 0 1 2 5 7 8 7 8 11 14 15 13 13 12 9 6 4 3 2 1 0 0 0 0 0 0 0 0
0 0 0 0 0 0 0 0 0 0 0 0 0 0 0 0 0 0 1 3 4 4 2 3 6 9 11 11 12 11 8 5 3 2 1 0 0 0 0 0 0 0 0 0
0 0 0 0 0 0 0 0 0 0 0 0 0 0 0 0 0 0 1 2 2 1 1 1 3 6 7 8 8 7 5 4 2 1 0 0 0 0 0 0 0 0 0 0
0 0 0 0 0 0 0 0 0 0 0 0 0 0 0 0 0 0 1 1 1 0 0 0 2 4 5 5 5 4 3 2 1 0 0 0 0 0 0 0 0 0 0 0
0 0 0 0 0 0 0 0 0 0 0 0 0 0 0 0 0 0 0 0 0 0 0 0 1 4 5 5 5 4 3 2 1 0 0 0 0 0 0 0 0 0 0 0
0 0 0 0 0 0 0 0 0 0 0 0 0 0 0 0 0 0 0 0 0 0 0 0 2 3 5 6 6 4 3 1 0 0 0 0 0 0 0 0 0 0 0 0
0 0 0 0 0 0 0 0 0 0 0 0 0 0 0 0 0 0 0 0 0 0 0 1 3 4 4 5 6 4 3 1 0 0 0 0 0 0 0 0 0 0 0 0
0 0 0 0 0 0 0 0 0 0 0 0 0 0 0 0 0 0 0 0 0 0 0 1 3 4 3 5 6 5 3 1 0 1 1 1 1 0 0 0 0 0 0 0
0 0 0 0 0 0 0 0 0 0 0 0 0 0 0 0 0 0 0 0 0 0 0 1 3 3 2 3 5 5 4 2 1 2 2 2 1 0 0 0 0 0 0 0
0 0 0 0 0 0 0 0 0 0 0 0 0 0 0 0 0 0 0 0 0 0 0 1 2 2 2 2 3 4 3 2 2 3 2 1 0 0 0 0 0 0 0 0
0 0 0 0 0 0 0 0 0 0 0 0 0 0 1 1 1 1 1 0 0 0 0 0 1 1 2 3 4 3 2 2 3 3 2 0 0 0 0 0 0 0 0 0
0 0 0 0 0 0 0 0 0 0 0 0 0 1 1 2 2 2 2 0 0 0 0 0 0 1 2 3 4 4 3 2 3 3 2 0 0 0 0 0 0 0 0 0
0 0 0 0 0 0 0 0 0 0 0 0 0 1 2 2 3 4 2 1 2 2 1 0 0 1 2 2 3 4 4 3 3 4 2 0 0 0 0 0 0 0 0 0
0 0 0 0 0 0 0 0 0 0 0 0 0 1 2 4 4 3 2 3 4 3 1 0 0 1 1 1 1 3 4 3 3 3 2 0 0 0 0 0 0 0 0 0
0 0 0 0 0 0 0 0 0 0 0 0 1 2 3 3 3 2 2 4 5 3 1 0 0 0 0 0 0 1 3 3 1 1 1 0 0 0 0 0 0 0 0 0
0 0 0 0 0 0 0 0 0 1 0 0 1 1 1 1 2 1 1 3 4 3 1 0 0 0 0 0 0 1 2 2 1 0 0 0 0 0 0 0 0 0 0 0
0 0 0 0 0 0 0 0 0 0 0 0 0 0 0 1 1 1 1 3 3 2 1 0 0 0 0 0 0 0 1 1 0 0 0 0 0 0 0 0 0 0 0 0
0 0 0 0 0 0 0 0 0 0 0 0 0 0 1 1 1 1 1 2 1 0 0 0 0 0 0 0 0 0 0 0 0 0 0 0 0 0 0 0 0 0 0 0
0 0 0 0 0 0 0 0 0 0 0 0 0 0 1 2 2 1 1 0 0 0 0 0 0 0 0 0 0 0 0 0 0 0 0 0 0 0 0 0 0 0 0 0
0 0 0 0 0 0 0 0 0 0 0 0 0 0 1 1 1 1 0 0 0 0 0 0 0 0 0 0 0 0 0 0 0 0 0 0 0 0 0 0 0 0 0 0
0 0 0 0 0 0 0 0 0 0 0 0 0 0 0 0 0 0 0 0 0 0 0 0 0 0 0 0 0 0 0 0 0 0 0 0 0 0 0 0 0 0 0 0
0 0 0 0 0 0 1 0 0 0 0 0 0 0 0 0 0 0 0 0 0 0 0 0 0 0 0 0 0 0 0 0 0 0 0 0 0 0 0 0 0 0 0 0
0 0 0 0 0 0 1 0 0 0 0 0 0 0 0 0 0 0 0 0 0 0 0 0 0 0 0 0 0 0 0 0 0 0 0 0 0 0 0 0 0 0 0 0

GEFSCGP_con_prob3kmehi_096.txt.gz
EHI
0 0 0 0 0 0 0 0 0 0 0 0 0 0 2 5 5 6 13 24 27 24 24 31 34 29 25 26 27 25 24 25 28 30 29 26 21 16 12 7 3 1 0 0
0 0 0 0 0 0 0 0 0 0 0 0 0 0 1 4 4 4 9 16 20 20 24 30 33 30 26 26 25 23 21 23 25 26 27 25 21 15 11 8 5 2 0 0
0 0 0 0 0 0 0 0 0 0 0 0 0 0 1 3 2 2 3 7 12 16 22 27 30 28 25 24 22 20 19 19 21 21 21 20 17 14 10 9 7 3 1 0
0 0 0 0 0 0 0 0 0 0 0 0 0 0 1 2 2 1 1 3 7 12 17 21 23 23 21 19 18 18 17 17 18 19 18 16 13 11 9 8 6 4 1 0
0 0 0 0 0 0 0 0 0 0 0 0 0 0 1 1 2 2 1 2 4 7 10 13 17 16 14 12 13 15 16 16 16 17 16 14 10 9 8 7 5 3 2 1
0 0 0 0 0 0 0 0 0 0 0 0 0 0 0 0 1 1 0 1 2 3 4 8 10 10 8 7 9 12 14 15 15 14 13 11 8 7 6 4 2 3 2 1
0 0 0 0 0 0 0 0 0 0 0 0 0 0 0 0 0 0 0 1 2 2 2 4 7 7 5 5 7 10 11 13 14 13 12 9 6 5 4 2 1 2 2 1
0 0 0 0 0 0 0 0 0 0 0 0 0 0 0 0 0 0 1 3 4 3 2 3 5 5 4 5 6 8 9 10 11 11 11 9 8 6 3 1 0 1 1 0
0 0 0 0 0 0 0 0 0 0 0 0 0 0 0 1 1 1 2 4 4 4 3 3 4 3 4 4 5 6 7 8 9 9 9 9 9 7 4 1 0 0 0 0
0 0 0 0 0 0 0 0 0 0 0 0 0 0 0 1 2 2 3 5 5 5 4 3 3 3 3 3 3 4 5 7 7 7 7 8 9 7 4 3 2 1 0 1
0 0 0 0 0 0 0 0 0 0 0 0 0 0 0 1 2 2 3 6 7 7 6 5 3 3 3 2 1 2 3 5 5 6 6 8 9 8 5 4 2 1 0 1
0 0 0 0 0 0 0 0 0 0 0 0 0 0 0 0 1 2 5 9 12 13 11 9 7 6 4 2 1 2 2 3 5 6 7 8 8 8 7 5 3 1 1 1
0 0 0 0 0 0 0 0 0 0 0 0 0 0 1 0 1 6 10 15 22 26 23 17 14 11 8 5 4 4 4 5 7 9 8 8 8 10 9 7 4 3 2 2
0 0 0 0 0 0 0 0 0 0 0 0 0 0 1 1 3 10 18 25 33 40 36 28 22 18 14 12 11 10 10 11 11 10 9 9 10 11 11 8 6 5 3 3
0 0 0 0 0 0 0 0 0 0 0 0 0 0 1 2 6 14 23 31 40 45 43 36 29 24 21 19 17 17 16 16 15 13 11 10 10 11 10 9 7 6 4 2
0 0 0 0 0 0 0 0 0 0 0 0 0 1 4 5 9 17 25 32 39 42 42 40 35 29 25 21 20 21 21 20 19 17 14 11 10 9 9 8 8 8 7 5
1 0 0 0 0 0 0 0 0 0 0 0 1 4 9 13 15 19 23 28 34 37 37 38 37 32 25 21 20 22 23 23 22 20 16 13 11 9 8 9 11 11 10 7
1 0 0 0 0 0 0 0 0 0 0 0 2 7 15 21 22 19 18 23 30 33 34 34 33 29 25 23 23 24 24 24 23 20 17 15 13 10 8 10 12 11 8 6
1 0 0 0 0 0 0 0 0 0 0 1 4 11 16 19 17 14 15 21 27 30 30 30 28 26 26 27 28 28 26 23 20 17 15 15 13 11 8 8 8 7 6 4
0 0 0 0 0 0 0 1 0 0 0 2 8 12 12 10 10 10 12 16 20 23 26 27 26 25 28 30 29 26 22 18 14 12 12 12 11 8 6 5 5 5 3 3
0 0 0 0 0 0 0 1 1 1 1 3 7 10 9 8 10 10 8 9 12 15 20 23 24 23 25 26 23 18 14 11 8 7 7 7 6 5 3 3 3 2 1 1
0 0 0 0 0 0 0 0 1 2 1 1 4 6 7 7 8 7 5 6 8 10 12 15 16 15 15 15 13 10 8 5 4 3 3 2 2 1 1 1 1 0 0 0
0 0 0 0 0 0 0 0 1 1 1 1 2 4 4 3 2 2 3 4 4 5 5 5 5 6 5 5 5 5 4 3 1 1 1 0 0 0 0 0 0 0 0 0
0 0 0 0 0 0 0 0 0 0 0 1 1 1 1 0 0 1 1 1 1 1 1 0 0 1 1 1 1 1 1 1 0 0 0 0 0 0 0 0 0 0 0 0
0 0 0 0 0 0 0 0 0 0 1 1 1 0 0 0 0 0 0 0 0 0 0 0 0 0 0 0 0 0 0 0 0 0 0 0 0 0 0 0 0 0 0 0
0 0 0 0 0 0 0 0 0 1 1 1 1 0 0 0 0 0 0 0 0 0 0 0 0 0 0 0 0 0 0 0 0 0 0 0 0 0 0 0 0 0 0 0

GEFSCGP_con_prob3kmehi_102.txt.gz
EHI
0 0 0 0 0 0 0 0 0 0 0 0 1 6 15 17 13 17 35 52 64 69 73 73 70 64 63 62 57 52 50 47 45 48 50 50 49 47 42 37 32 24 16 13
0 0 0 0 0 0 0 0 0 0 0 0 0 6 16 19 14 15 28 45 57 65 70 71 67 64 62 61 56 50 47 43 42 44 47 49 48 44 40 36 31 23 16 13
0 0 0 0 0 0 0 0 0 0 0 0 0 5 15 19 14 13 22 35 48 57 63 66 64 62 61 58 51 46 42 39 38 39 41 42 40 36 34 35 30 23 17 15
0 0 0 0 0 0 0 0 0 0 0 0 0 4 11 14 13 14 20 29 40 49 55 59 61 60 57 52 45 42 40 38 35 35 35 33 30 28 30 32 30 24 18 15
0 0 0 0 0 0 0 0 0 0 0 0 0 2 6 8 10 14 20 26 34 41 46 51 54 56 54 47 41 40 41 38 35 32 31 29 26 26 28 30 28 22 16 12
0 0 0 0 0 0 0 0 0 0 0 0 0 0 2 3 6 11 18 24 28 33 39 45 49 52 48 41 35 36 38 37 33 29 27 26 25 24 26 27 23 16 11 9
0 0 0 0 0 0 0 0 0 0 0 0 0 0 0 1 3 9 15 20 23 25 31 40 45 45 41 34 30 30 33 32 28 26 25 24 22 20 21 21 17 11 7 6
0 0 0 0 0 0 0 0 0 0 0 0 0 0 0 1 2 7 12 15 17 20 27 36 39 38 34 30 26 26 28 28 26 25 24 23 20 16 15 14 11 8 5 5
0 0 0 0 0 0 0 0 0 0 0 0 0 1 1 1 1 4 9 13 15 19 26 33 35 33 30 29 27 24 24 25 24 22 21 19 16 12 10 10 8 7 6 5
0 0 0 0 0 0 0 0 0 0 0 0 0 1 1 2 2 4 9 15 19 23 27 33 35 33 29 29 26 22 20 21 19 17 15 13 12 11 10 11 11 11 10 9
0 0 0 0 0 0 0 0 0 0 0 0 0 0 1 2 3 4 10 20 26 28 32 38 40 35 30 28 24 20 19 18 15 13 13 13 12 12 13 15 16 16 15 14
0 0 0 0 0 0 0 0 0 0 0 0 0 0 0 0 2 4 12 27 36 38 42 47 46 37 30 27 25 23 21 18 14 13 15 16 15 15 16 18 19 18 16 15
0 0 0 0 0 0 0 0 0 0 0 0 0 0 0 0 1 5 18 36 48 53 57 59 54 45 35 30 29 27 24 20 17 16 18 19 19 18 18 19 19 17 14 12
0 0 0 0 0 0 0 0 0 0 0 0 0 0 0 2 5 11 24 42 56 63 68 69 64 56 47 40 36 31 27 24 22 22 22 22 22 20 19 18 17 16 11 7
0 0 0 0 0 0 0 0 0 0 0 0 0 0 2 5 10 18 29 43 56 63 68 72 71 64 57 52 46 39 35 32 29 28 26 25 24 22 21 19 17 15 11 7
0 0 0 0 0 0 0 0 0 0 0 0 0 2 6 11 18 27 36 46 53 57 65 72 72 68 63 59 54 48 43 39 35 32 30 29 27 24 23 21 20 18 14 12
0 0 0 0 0 0 0 0 0 0 0 0 2 8 16 24 31 39 47 53 56 58 66 73 74 70 67 62 56 51 47 43 39 35 33 32 30 27 24 23 23 20 17 14
1 1 0 0 0 0 0 0 0 0 0 1 5 13 23 30 36 44 52 60 62 65 71 76 75 72 68 62 56 51 46 43 39 36 33 33 33 29 23 21 21 18 14 12
0 0 0 0 0 0 0 0 1 0 1 4 12 19 23 23 27 38 51 59 64 69 73 75 74 72 68 64 59 53 47 43 39 35 32 32 33 29 22 18 17 13 9 8
0 0 0 0 0 0 0 0 0 0 2 9 20 28 26 22 25 39 50 54 57 63 68 69 67 66 65 64 60 54 47 41 37 33 31 29 28 25 21 17 13 9 6 6
0 0 0 0 0 0 0 0 1 4 7 11 18 25 27 29 34 40 44 42 43 48 53 54 53 53 54 54 50 45 39 35 31 28 25 23 20 17 15 13 10 6 4 3
0 0 0 0 0 1 1 1 3 8 10 8 9 11 16 23 28 30 27 25 25 28 31 34 36 38 39 39 36 32 30 27 24 20 16 14 11 9 8 7 6 3 1 1
0 0 0 1 1 1 2 2 4 7 6 4 4 4 6 10 14 15 13 11 12 13 15 19 22 25 26 26 25 22 20 19 15 11 7 5 4 3 3 3 2 1 0 0
0 0 0 1 1 1 1 1 2 2 2 2 4 4 3 4 7 9 8 7 7 8 10 11 11 11 12 13 14 11 10 9 7 4 2 1 1 0 1 1 0 0 0 0
0 0 0 1 1 0 0 1 1 0 0 2 4 4 2 3 5 7 7 5 5 5 7 6 4 2 2 3 3 2 2 2 1 0 0 0 0 0 0 0 0 0 0 0
0 0 0 0 0 0 0 1 0 0 0 1 3 2 2 2 3 5 6 5 3 3 3 2 1 0 0 0 0 0 0 0 0 0 0 0 0 0 0 0 0 0 0 0

GEFSCGP_con_prob3kmehi_108.txt.gz
EHI
0 0 0 0 0 0 0 0 0 0 0 0 2 6 11 18 28 37 45 55 63 65 62 56 51 47 45 45 45 41 35 29 26 27 25 22 18 13 6 3 3 3 3 3
0 0 0 0 0 0 0 0 0 0 0 1 3 6 10 15 23 34 44 53 60 63 62 58 52 47 45 44 41 36 31 27 25 24 22 18 16 11 6 3 3 3 3 3
0 0 0 0 0 0 0 0 0 0 0 1 2 5 7 9 15 25 37 46 52 57 59 56 50 44 41 39 34 29 27 25 23 21 17 14 12 9 6 4 4 3 3 3
0 0 0 0 0 0 0 0 0 0 0 0 1 2 3 4 7 14 24 34 43 49 53 52 46 40 36 33 29 25 24 23 22 20 16 13 11 8 5 5 5 5 5 4
0 0 0 0 0 0 0 0 0 0 0 0 0 0 0 2 4 6 13 23 33 41 47 49 45 38 33 30 27 23 20 19 18 17 14 12 10 7 4 4 5 7 6 5
0 0 0 0 0 0 0 0 0 0 0 0 0 0 0 1 1 3 8 17 25 32 41 44 41 36 32 29 26 21 17 15 14 13 11 9 7 6 4 3 5 6 5 4
0 0 0 0 0 0 0 0 0 0 0 0 0 0 0 0 1 2 6 12 20 28 35 37 34 31 29 28 25 21 15 12 11 9 8 7 6 5 4 4 5 5 3 1
0 0 0 0 0 0 0 0 0 0 0 0 0 0 0 1 1 3 4 9 15 23 29 33 30 26 25 24 22 19 14 11 9 8 6 6 6 5 4 4 5 4 1 0
0 0 0 0 0 0 0 0 0 0 0 0 0 0 1 2 3 4 5 8 12 16 23 28 27 23 20 19 18 17 14 11 9 7 6 6 5 4 4 4 3 2 0 0
0 0 0 0 0 0 0 0 0 0 0 0 0 0 1 2 3 5 6 9 12 15 20 23 21 18 15 13 14 15 14 13 10 8 7 6 5 4 4 3 2 1 0 0
0 0 0 0 0 0 0 0 0 0 0 0 0 0 0 1 1 3 5 9 13 16 17 18 16 13 11 10 11 12 13 13 11 9 7 7 6 4 3 3 1 0 0 0
0 0 0 0 0 0 0 0 0 0 0 0 0 0 0 0 0 1 4 8 13 15 14 14 13 10 9 9 10 12 12 12 11 9 7 6 6 4 3 2 1 0 0 0
0 0 0 0 0 0 0 0 0 0 0 0 0 0 0 0 0 1 4 9 14 15 13 13 13 10 8 8 9 12 13 12 10 9 7 6 4 4 3 2 0 0 0 0
0 0 0 0 0 0 0 0 0 0 0 0 0 0 0 1 1 2 4 10 16 16 14 15 15 12 10 8 8 10 11 11 10 8 7 5 4 4 3 2 1 0 0 0
0 0 0 0 0 0 0 0 0 0 0 0 1 1 0 1 2 3 5 10 15 15 13 15 16 15 13 11 10 10 9 9 8 7 6 5 4 4 4 3 2 1 0 0
0 0 0 0 0 0 0 0 0 0 0 0 2 2 1 2 3 5 6 11 16 16 14 14 15 14 14 14 13 10 8 6 6 6 6 5 5 4 3 3 3 1 0 0
0 0 0 0 0 0 0 0 0 0 0 0 1 1 2 4 5 7 11 16 20 21 19 15 12 12 12 12 13 11 8 5 4 5 6 6 5 4 4 3 3 2 1 0
0 0 0 0 0 0 0 0 0 0 1 0 0 1 4 7 9 11 17 22 23 24 22 16 12 12 12 11 12 11 9 6 5 5 7 7 6 5 4 4 3 2 1 0
0 0 0 0 0 0 0 0 0 0 1 1 0 2 4 7 9 12 16 19 19 19 19 18 16 14 13 12 12 11 10 8 7 7 8 9 8 6 4 3 3 2 1 0
0 0 0 0 0 0 0 0 0 0 0 1 0 1 2 3 5 7 9 12 13 13 16 18 18 16 14 12 11 11 10 10 9 7 7 8 7 5 3 3 2 2 1 0
0 0 0 0 0 0 0 0 0 0 0 1 1 1 1 0 1 1 2 5 6 8 10 12 13 13 11 10 10 10 10 10 8 5 4 3 3 2 2 1 1 1 0 0
0 0 0 0 0 0 0 0 0 0 0 0 1 2 1 0 0 0 0 1 2 2 4 4 6 8 9 8 9 9 7 7 5 2 1 0 0 1 1 0 0 0 0 0
0 0 0 0 0 0 0 0 0 0 0 0 1 1 1 0 0 0 0 0 0 0 1 2 2 4 5 5 6 6 3 2 2 1 0 0 0 0 0 0 0 0 0 0
0 0 0 0 0 0 0 0 0 0 0 0 0 0 0 0 0 0 0 0 0 0 1 1 1 1 1 2 3 2 1 0 0 0 0 0 0 0 0 0 0 0 0 0
0 0 0 0 0 0 0 0 0 0 0 0 0 0 0 0 0 0 0 0 0 0 0 0 0 0 0 0 0 0 0 0 0 0 0 0 0 0 0 0 0 0 0 0
0 0 0 0 0 0 0 0 0 0 0 0 0 0 0 0 0 0 0 0 0 0 0 0 0 0 0 0 0 0 0 0 0 0 0 0 0 0 0 0 0 0 0 0

GEFSCGP_con_prob3kmehi_114.txt.gz
EHI
0 0 0 0 0 0 0 0 0 0 0 0 0 1 3 8 18 27 33 33 27 21 20 27 39 46 43 34 27 24 20 15 10 7 5 3 1 0 0 0 1 1 1 0
0 0 0 0 0 0 0 0 0 0 0 0 0 0 2 6 13 21 26 25 23 21 22 28 39 44 41 34 28 23 20 17 13 9 6 3 1 0 0 0 0 0 0 1
0 0 0 0 0 0 0 0 0 0 0 0 0 0 1 3 7 11 16 18 19 22 24 29 37 41 40 34 28 24 22 19 14 10 7 3 1 1 1 1 0 0 1 2
0 0 0 0 0 0 0 0 0 0 0 0 0 0 0 1 3 4 8 14 18 23 27 29 32 36 36 32 26 24 24 20 14 10 6 4 3 2 2 2 1 0 1 3
0 0 0 0 0 0 0 0 0 0 0 0 0 0 0 0 1 1 4 9 14 20 25 26 25 26 27 24 21 21 22 19 13 9 6 3 3 3 3 3 1 0 0 1
0 0 0 0 0 0 0 0 0 0 0 0 0 0 0 0 0 0 1 5 10 14 18 19 18 17 17 16 16 17 17 16 12 9 5 3 3 3 3 3 2 1 1 0
0 0 0 0 0 0 0 0 0 0 0 0 0 0 0 0 0 0 1 3 6 10 14 15 14 12 12 13 13 13 13 12 10 7 4 2 3 3 3 3 3 2 2 1
0 0 0 0 0 0 0 0 0 0 0 0 0 0 0 0 0 0 1 2 3 7 12 15 13 10 11 12 10 9 9 8 6 4 2 2 2 2 2 2 2 2 2 2
0 0 0 0 0 0 0 0 0 0 0 0 0 0 0 0 0 1 2 2 2 4 9 13 11 9 9 8 6 6 6 5 4 3 3 2 2 1 1 1 0 1 1 1
0 0 0 0 0 0 0 0 0 0 0 0 0 0 0 0 0 1 1 1 1 4 8 11 10 8 6 4 3 4 5 6 5 5 4 3 3 1 0 0 0 0 0 0
0 0 0 0 0 0 0 0 0 0 0 0 0 0 0 0 0 0 0 0 1 4 7 9 8 6 4 3 3 4 5 6 6 4 3 3 3 2 0 0 0 0 0 0
0 0 0 0 0 0 0 0 0 0 0 0 0 0 0 0 0 0 0 0 1 3 4 4 5 4 3 3 4 4 4 5 5 3 2 2 2 2 0 0 0 0 0 0
0 0 0 0 0 0 0 0 0 0 0 0 0 0 0 0 0 0 0 0 0 1 1 1 3 3 3 3 4 3 3 4 3 1 1 1 2 2 1 1 0 0 0 0
0 0 0 0 0 0 0 0 0 0 0 0 0 0 0 0 0 0 0 0 0 0 0 1 2 2 2 2 3 3 3 3 1 0 0 0 1 2 3 2 1 1 0 0
0 0 0 0 0 0 0 0 0 0 0 0 0 0 0 0 0 0 0 0 1 1 1 0 1 1 1 1 2 2 3 2 1 0 0 0 1 2 3 3 3 2 1 0
0 0 0 0 0 0 0 0 0 0 0 0 0 0 0 1 1 1 1 1 2 2 1 0 0 0 0 1 2 2 3 2 1 0 0 0 1 2 3 3 3 3 1 0
0 0 0 0 0 0 0 0 0 0 0 0 0 0 1 2 3 3 3 3 3 3 2 0 0 0 0 2 4 4 3 2 1 0 0 0 0 1 2 3 3 3 2 1
0 0 0 0 0 0 0 0 0 1 1 1 0 0 1 3 5 4 3 2 2 3 3 2 1 1 1 2 4 4 3 2 1 0 0 0 0 0 1 2 3 3 3 3
0 0 0 0 0 0 0 0 0 1 2 1 0 0 1 3 3 3 2 2 2 2 3 2 2 2 2 2 3 3 2 1 0 0 0 0 0 0 0 1 2 3 3 3
0 0 0 0 0 0 0 0 0 0 1 1 0 0 1 1 1 1 1 1 1 1 2 2 1 1 1 1 2 2 1 0 0 0 0 0 0 0 0 0 1 3 3 3
0 0 0 0 0 0 0 0 0 0 0 0 0 0 0 0 0 0 0 0 0 0 2 2 1 0 0 1 2 2 1 0 0 0 0 0 0 0 0 0 1 2 2 1
0 0 0 0 0 0 0 0 0 0 0 0 0 0 0 0 0 0 0 0 0 0 1 1 1 0 0 1 2 2 1 0 0 0 0 0 0 0 0 0 0 1 1 0
0 0 0 0 0 0 0 0 0 0 0 0 0 0 0 0 0 0 0 0 0 0 0 0 0 0 0 0 1 1 1 0 0 0 0 0 0 0 0 0 0 0 0 0
0 0 0 0 0 0 0 0 0 0 0 0 0 0 0 0 0 0 0 0 0 0 0 0 0 0 0 0 0 0 0 0 0 0 0 0 0 0 0 0 0 0 0 0
0 0 0 0 0 0 0 0 0 0 0 0 0 0 0 0 0 0 0 0 0 0 0 0 0 0 0 0 0 0 0 0 0 0 0 0 0 0 0 0 0 0 0 0
0 0 0 0 0 0 0 0 0 0 0 0 0 0 0 0 0 0 0 0 0 0 0 0 0 0 0 0 0 0 0 0 0 0 0 0 0 0 0 0 0 0 0 0

GEFSCGP_con_prob3kmehi_120.txt.gz
EHI
0 0 0 0 0 0 0 0 0 0 0 0 0 1 3 5 6 10 17 22 30 40 47 52 54 53 51 50 49 48 45 38 32 28 23 16 11 10 9 5 3 2 1 0
0 0 0 0 0 0 0 0 0 0 0 0 0 1 3 6 7 10 14 20 27 37 47 53 55 53 51 49 46 43 40 36 31 26 20 15 12 11 7 5 5 5 3 1
0 0 0 0 0 0 0 0 0 0 0 0 0 1 2 5 8 10 12 17 25 35 45 53 54 52 49 47 42 36 35 34 30 24 17 13 10 8 5 4 6 6 3 2
0 0 0 0 0 0 0 0 0 0 0 0 0 0 1 3 5 8 9 15 24 32 41 50 53 49 45 40 36 32 31 31 28 24 18 13 10 6 4 4 5 4 3 2
0 0 0 0 0 0 0 0 0 0 0 0 0 0 0 1 2 4 7 13 21 29 38 46 47 45 40 34 29 28 28 28 26 23 20 17 13 9 5 5 6 4 3 2
0 0 0 0 0 0 0 0 0 0 0 0 0 0 0 0 0 1 5 12 19 27 35 40 40 38 36 32 27 25 25 25 23 21 19 17 15 11 7 7 8 6 5 4
0 0 0 0 0 0 0 0 0 0 0 0 0 0 0 0 0 0 4 11 17 23 28 32 34 34 32 31 27 24 24 24 22 19 17 15 13 11 9 9 9 9 7 6
0 0 0 0 0 0 0 0 0 0 0 0 0 0 0 0 0 0 3 10 15 18 22 26 30 31 29 27 25 24 23 23 20 17 15 12 10 9 9 10 10 9 8 7
0 0 0 0 0 0 0 0 0 0 0 0 0 0 0 0 0 0 2 6 11 15 18 21 26 28 27 24 22 21 22 21 17 13 12 9 7 7 8 8 8 7 6 5
0 0 0 0 0 0 0 0 0 0 0 0 0 0 0 0 0 0 2 4 9 13 15 19 25 27 25 23 20 19 19 17 13 10 8 6 4 4 5 4 3 4 4 2
0 0 0 0 0 0 0 0 0 0 0 0 0 0 0 0 0 1 2 4 9 14 16 20 25 25 23 20 18 16 15 12 8 6 5 4 2 2 2 1 1 2 3 2
0 0 0 0 0 0 0 0 0 0 0 0 0 0 0 0 1 2 4 7 11 16 19 22 23 22 18 16 14 12 11 9 6 5 4 3 3 2 2 1 1 3 3 3
0 0 0 0 0 0 0 0 0 0 0 0 0 0 0 1 2 5 8 11 14 19 23 23 21 18 15 13 11 11 10 9 8 7 6 4 3 3 3 3 3 3 4 4
0 0 0 0 0 0 0 0 0 0 0 0 0 0 0 1 4 7 10 13 17 23 25 21 17 16 15 13 12 11 11 10 10 9 7 5 4 3 3 3 3 3 3 4
0 0 0 0 0 0 0 0 0 0 0 0 0 0 2 4 7 9 12 16 21 26 24 18 15 15 15 14 12 11 11 10 10 9 7 5 4 3 3 3 4 4 4 4
0 0 0 0 0 0 0 0 0 0 0 0 0 2 6 11 13 12 14 19 25 26 23 19 17 16 15 14 12 11 10 9 8 6 4 4 4 3 3 4 5 5 6 6
0 0 0 0 0 0 0 0 0 0 0 1 3 8 14 20 23 21 19 22 26 26 23 20 19 19 17 14 11 10 10 9 8 6 5 5 4 4 5 5 6 7 7 7
0 0 0 0 0 0 0 0 0 0 0 2 8 17 25 30 31 29 25 23 25 26 22 19 18 18 17 15 12 11 13 13 10 8 8 9 8 7 8 8 8 8 7 6
0 0 0 0 0 0 0 0 0 0 1 4 10 20 26 26 26 26 24 22 23 25 24 20 16 13 15 16 16 15 17 17 13 10 10 11 10 10 10 9 8 7 5 4
0 0 0 0 0 0 0 0 0 0 3 8 13 17 20 19 20 22 20 20 21 22 23 20 13 11 14 17 16 17 18 18 15 11 11 11 10 10 10 9 7 4 2 1
0 0 0 0 0 0 0 0 1 3 9 16 20 21 21 23 24 20 16 16 17 16 15 14 11 11 14 17 16 15 16 16 15 14 12 12 11 10 10 9 5 2 0 0
0 0 0 0 0 0 0 1 3 8 15 21 25 27 26 24 21 15 12 11 10 8 7 8 10 12 15 16 15 14 15 15 15 15 14 13 11 9 8 6 3 1 0 0
0 0 0 0 0 0 0 2 4 10 15 20 23 23 20 15 11 9 8 7 5 4 4 5 7 10 12 13 12 14 15 15 14 14 13 12 9 5 3 2 1 0 0 0
0 0 0 0 0 0 1 2 5 10 13 14 16 15 12 9 6 5 4 3 3 2 2 3 4 5 7 8 9 11 12 11 10 11 11 9 5 2 0 0 0 0 0 0
0 0 0 0 0 1 3 5 7 9 9 9 10 10 7 5 3 2 1 1 1 1 1 1 2 3 3 4 5 5 5 5 5 6 6 4 2 1 0 0 0 0 0 0
0 0 0 0 1 3 5 7 7 8 7 7 8 7 5 2 2 1 0 0 0 0 0 0 1 1 2 2 2 1 1 1 1 2 2 1 1 0 0 0 0 0 0 0

GEFSCGP_con_prob3kmehi_126.txt.gz
EHI
0 0 0 0 0 0 0 0 0 0 0 0 0 0 1 2 5 15 34 54 67 75 81 85 88 89 89 87 82 77 73 68 58 51 48 45 42 42 40 41 44 39 31 30
0 0 0 0 0 0 0 0 0 0 0 0 0 0 1 2 5 13 28 47 63 73 80 84 87 87 86 84 80 75 72 69 61 53 47 42 39 37 33 36 42 38 31 31
0 0 0 0 0 0 0 0 0 0 0 0 0 0 1 2 4 10 20 37 55 68 76 82 83 82 81 80 78 74 70 67 64 56 46 38 34 30 26 31 39 37 31 29
0 0 0 0 0 0 0 0 0 0 0 0 0 0 1 2 4 7 14 27 45 60 71 78 78 76 75 76 76 73 69 66 63 59 50 39 32 26 23 27 36 37 31 28
0 0 0 0 0 0 0 0 0 0 0 0 0 0 0 1 3 6 12 22 36 52 66 74 74 71 71 71 71 71 70 68 63 59 54 44 34 26 22 25 32 35 31 28
0 0 0 0 0 0 0 0 0 0 0 0 0 0 0 1 2 6 12 21 33 46 60 69 69 68 68 67 66 67 68 68 63 58 52 45 38 30 25 25 26 27 26 25
0 0 0 0 0 0 0 0 0 0 0 0 0 0 1 2 3 5 12 21 30 41 54 64 65 64 66 66 64 64 63 63 61 56 49 43 39 33 27 25 21 18 17 17
0 0 0 0 0 0 0 0 0 0 0 0 0 0 2 3 3 5 11 19 26 36 49 58 60 60 61 62 61 60 59 58 57 54 47 40 36 29 25 23 18 13 12 10
0 0 0 0 0 0 0 0 0 0 0 0 0 1 3 3 3 5 9 15 22 33 45 53 57 56 54 55 56 55 54 53 52 49 42 36 32 27 25 22 16 12 11 11
0 0 0 0 0 0 0 0 0 0 0 0 0 1 3 4 4 5 9 14 22 33 43 52 56 54 50 49 49 47 46 46 46 43 37 30 27 27 26 23 17 12 12 15
0 0 0 0 0 0 0 0 0 0 0 0 0 1 3 4 5 6 10 17 26 35 45 53 55 52 46 43 41 39 37 36 38 38 33 26 23 23 23 20 16 14 16 19
0 0 0 0 0 0 0 0 0 0 0 0 0 1 2 4 6 9 15 23 30 36 46 54 54 49 43 38 35 33 30 29 30 32 31 28 25 23 21 18 17 17 19 21
0 0 0 0 0 0 0 0 0 0 0 0 1 2 3 6 11 17 23 30 37 40 46 53 54 49 43 39 34 30 27 26 26 27 29 30 28 25 22 19 18 18 20 21
0 0 0 0 0 0 0 0 0 0 0 0 2 4 8 12 18 24 32 39 44 46 49 55 57 53 48 43 37 31 28 27 26 26 26 27 27 25 22 21 20 19 19 20
0 0 0 0 0 0 0 0 0 0 0 1 3 7 13 18 23 28 36 44 48 48 50 55 58 58 54 47 40 36 33 29 26 23 21 21 23 22 21 20 20 19 18 16
0 0 0 0 0 0 0 0 0 0 0 1 4 9 15 21 25 27 33 43 48 47 51 55 59 60 56 46 40 38 35 29 24 20 17 16 17 18 19 19 20 20 17 14
0 0 0 0 0 0 0 0 0 0 1 3 7 15 24 30 31 31 33 42 49 51 55 59 63 63 55 44 36 34 32 28 23 19 17 17 16 17 18 17 17 17 14 13
1 2 1 0 0 0 0 0 0 0 2 5 14 26 37 42 43 42 43 49 58 60 61 62 62 59 52 41 33 30 30 28 24 21 20 20 20 19 18 16 14 13 12 12
2 2 1 0 0 0 0 0 0 1 3 8 18 31 42 45 46 50 56 60 65 65 61 57 54 51 46 39 33 31 31 30 25 23 23 22 21 20 19 17 14 12 14 15
1 2 1 0 0 0 0 0 0 2 8 16 26 37 44 45 48 56 62 63 62 58 53 49 47 44 41 38 34 32 31 29 26 25 25 24 22 21 20 19 16 14 15 16
0 0 0 0 0 0 0 1 4 12 23 33 42 52 58 60 62 63 61 56 50 45 43 43 43 41 38 35 33 31 30 30 29 27 26 23 20 18 17 18 15 13 12 13
1 0 0 0 3 9 14 16 20 30 40 47 55 62 67 68 64 58 52 46 39 34 34 36 37 36 35 32 29 28 29 31 31 28 23 19 16 13 13 13 11 9 8 7
3 3 5 6 13 25 33 34 35 39 44 48 53 55 56 54 48 42 40 37 31 27 26 26 28 29 28 26 23 23 26 28 27 24 21 17 13 11 10 9 6 4 3 2
5 7 11 16 22 30 34 33 32 32 34 39 42 42 40 38 34 33 33 30 24 20 17 17 19 21 20 19 18 18 19 20 19 19 18 16 13 10 8 5 2 1 1 0
4 7 12 18 22 24 22 18 19 21 23 26 30 32 31 29 29 28 26 22 17 14 11 10 11 13 13 13 14 13 12 12 13 14 13 13 11 7 3 1 0 0 0 0
2 4 9 15 18 19 15 11 11 15 17 19 22 24 25 26 25 23 19 16 14 12 9 8 8 8 8 9 11 11 8 8 10 11 9 8 8 5 1 0 0 0 0 0

GEFSCGP_con_prob3kmehi_132.txt.gz
EHI
0 0 0 0 0 0 0 0 0 0 0 0 1 4 14 30 48 59 63 64 66 66 65 71 76 74 70 66 62 58 52 45 38 31 24 19 17 13 9 8 10 11 10 8
0 0 0 0 0 0 0 0 0 0 0 0 1 4 12 24 41 54 62 65 68 68 69 72 74 72 68 65 63 58 50 43 37 31 23 17 13 10 8 7 8 10 9 9
0 0 0 0 0 0 0 0 0 0 0 0 0 2 7 18 33 48 58 65 69 71 73 73 72 69 66 65 64 57 48 39 33 28 22 15 10 6 5 5 6 7 8 8
0 0 0 0 0 0 0 0 0 0 0 0 0 0 4 14 28 42 53 62 67 69 69 71 70 67 64 64 63 57 47 36 30 26 22 16 10 6 3 3 4 5 6 6
0 0 0 0 0 0 0 0 0 0 0 0 0 0 2 9 21 34 45 56 62 62 62 63 64 62 60 59 59 55 46 35 28 25 22 16 10 5 2 2 3 4 4 4
0 0 0 0 0 0 0 0 0 0 0 0 0 0 1 4 12 24 37 50 58 58 56 55 56 56 55 54 55 52 45 35 26 21 18 14 9 5 3 3 4 4 3 2
0 0 0 0 0 0 0 0 0 0 0 0 0 0 0 2 9 20 32 45 55 56 52 50 51 52 52 52 52 49 43 34 25 19 15 12 10 8 6 4 4 3 1 1
0 0 0 0 0 0 0 0 0 0 0 0 0 0 2 5 13 23 31 41 49 49 46 47 48 48 48 49 47 43 38 30 24 20 17 13 10 8 5 3 3 2 1 0
0 0 0 0 0 0 0 0 0 0 0 0 0 0 4 11 20 25 30 37 41 42 42 43 42 41 42 43 40 36 32 27 22 19 17 12 8 5 3 1 1 1 0 0
0 0 0 0 0 0 0 0 0 0 0 0 0 0 4 12 20 24 26 30 34 37 39 39 35 32 33 34 32 29 28 24 20 16 14 11 6 3 2 1 0 0 0 0
0 0 0 0 0 0 0 0 0 0 0 0 0 0 3 10 17 21 23 25 29 31 34 33 29 24 23 24 23 22 22 20 17 15 12 9 5 3 2 2 1 0 0 0
0 0 0 0 0 0 0 0 0 0 0 0 0 0 3 10 17 21 24 25 25 26 28 29 26 21 17 17 19 19 18 16 14 12 10 7 4 2 1 2 1 0 0 0
0 0 0 0 0 0 0 0 0 0 0 0 0 0 4 12 19 23 26 27 25 24 26 27 26 22 17 15 16 17 16 14 10 8 6 5 3 2 2 1 1 0 0 0
0 0 0 0 0 0 0 0 0 0 0 0 0 1 4 13 20 23 25 26 26 26 26 27 26 23 18 15 13 13 14 12 7 5 3 3 3 3 3 2 1 1 0 0
0 0 0 0 0 0 0 0 0 0 0 0 1 2 5 12 18 21 24 28 31 30 28 26 24 22 19 15 10 9 11 9 6 4 2 2 3 3 3 3 2 2 1 0
0 0 0 0 0 0 0 0 0 0 0 1 3 4 7 12 17 21 27 34 37 33 28 24 22 22 20 13 8 7 8 8 6 4 3 3 3 3 3 3 3 3 1 0
0 0 0 0 0 0 0 0 0 0 1 2 5 8 12 16 20 25 31 37 38 32 26 23 20 18 15 10 7 7 9 10 9 6 4 4 4 3 3 3 2 2 1 1
0 0 0 0 0 0 0 0 0 1 3 6 9 14 21 27 30 31 32 32 32 28 22 17 13 11 9 9 10 11 12 12 10 8 6 5 4 3 2 1 1 1 1 0
0 0 0 0 0 0 0 0 1 4 8 12 16 23 30 36 39 35 28 27 27 24 18 11 6 5 6 8 9 11 11 11 10 9 6 5 5 4 2 0 0 0 0 0
0 0 0 0 0 0 0 1 2 5 11 15 20 28 33 36 36 32 26 24 24 21 15 8 4 5 6 8 8 8 9 9 9 8 6 5 5 5 2 0 0 0 0 0
0 0 0 0 0 0 1 1 1 4 9 16 22 28 30 31 31 30 27 24 22 20 15 8 5 6 7 8 8 8 8 8 8 6 5 4 5 5 3 1 0 0 0 0
0 0 0 0 0 0 1 1 1 5 13 22 28 29 30 34 35 31 27 24 22 20 16 11 7 5 6 7 8 8 8 7 6 4 4 4 4 4 4 2 1 0 0 0
0 0 1 2 3 3 5 4 5 11 21 29 32 31 32 35 34 28 23 21 20 18 14 10 7 5 4 5 6 7 6 5 4 3 3 3 3 3 4 3 1 0 0 0
0 0 2 5 6 8 10 10 11 17 24 28 30 29 27 27 23 20 19 18 15 12 10 8 6 5 3 3 4 4 4 3 2 2 3 3 3 3 3 2 1 0 0 0
0 0 1 4 6 8 11 12 15 20 24 24 24 22 20 17 14 12 13 13 10 7 6 5 5 3 2 1 1 1 1 1 1 1 1 2 2 2 2 1 1 0 0 0
0 0 1 2 4 6 7 10 16 22 24 21 19 18 15 12 9 9 10 9 7 5 3 3 2 1 1 0 0 0 0 0 0 0 0 1 1 1 1 0 0 0 0 0

GEFSCGP_con_prob3kmehi_138.txt.gz
EHI
0 0 0 0 0 0 0 0 0 0 0 1 1 1 4 14 24 34 43 45 41 37 33 34 38 42 43 38 30 24 20 17 12 8 6 4 3 2 1 0 0 0 0 0
0 0 0 0 0 0 0 0 0 0 0 0 0 0 3 10 19 30 39 42 41 38 37 38 39 42 42 38 31 27 25 21 17 12 8 4 3 2 1 0 0 0 0 0
0 0 0 0 0 0 0 0 0 0 0 0 0 0 1 4 11 23 32 38 41 42 42 42 41 41 40 35 30 28 27 24 19 15 12 8 6 4 1 0 0 0 0 0
0 0 0 0 0 0 0 0 0 0 0 0 0 0 0 1 5 14 26 37 44 46 44 43 40 37 35 31 26 24 22 20 18 16 15 14 11 6 2 1 0 0 0 0
0 0 0 0 0 0 0 0 0 0 0 0 0 0 0 0 1 6 19 34 43 45 44 41 36 32 30 26 23 22 20 17 16 15 15 14 11 6 2 1 1 1 0 0
0 0 0 0 0 0 0 0 0 0 0 0 0 0 0 0 0 3 13 28 38 42 41 37 33 30 28 26 25 25 23 18 15 13 12 10 8 5 2 1 1 1 0 0
0 0 0 0 0 0 0 0 0 0 0 0 0 0 0 0 0 3 12 26 36 40 38 34 33 32 29 28 28 26 23 18 14 11 9 8 7 5 2 1 0 0 0 0
0 0 0 0 0 0 0 0 0 0 0 0 0 0 0 0 1 5 14 26 35 39 38 34 31 30 29 27 26 24 20 15 11 9 6 6 6 5 2 0 0 0 0 0
0 0 0 0 0 0 0 0 0 0 0 0 0 0 0 0 2 7 14 22 30 34 34 30 26 24 24 23 21 19 16 12 9 7 6 5 4 3 2 0 0 0 0 0
0 0 0 0 0 0 0 0 0 0 0 0 0 0 0 0 2 7 12 16 21 26 27 23 20 18 17 16 15 13 12 10 8 7 6 5 3 2 1 0 0 0 0 0
0 0 0 0 0 0 0 0 0 0 0 0 0 0 0 0 2 6 10 12 15 20 21 19 17 14 12 12 11 9 8 8 7 6 5 4 3 2 1 0 0 0 0 0
0 0 0 0 0 0 0 0 0 0 0 0 0 0 0 0 2 6 10 13 15 17 18 17 16 13 12 12 10 8 7 6 5 4 4 3 2 2 1 0 0 0 0 0
0 0 0 0 0 0 0 0 0 0 0 0 0 0 0 1 3 7 11 14 16 16 17 17 15 12 12 12 10 7 5 5 4 3 3 2 2 2 1 0 0 0 0 0
0 0 0 0 0 0 0 0 0 0 0 0 0 0 1 2 4 8 12 15 15 16 18 18 15 12 11 11 8 3 2 2 2 2 2 1 1 1 0 0 0 0 0 0
0 0 0 0 0 0 0 0 0 0 0 0 0 0 1 2 4 8 12 15 15 15 16 17 14 11 10 10 6 2 0 1 1 1 1 0 0 0 0 0 0 0 0 0
0 0 0 0 0 0 0 0 0 0 0 0 0 0 1 3 5 7 10 14 15 14 13 13 10 7 7 8 5 2 0 0 0 0 0 0 0 0 0 0 0 0 0 0
0 0 0 0 0 0 0 0 0 0 0 0 0 0 2 4 6 6 8 12 14 13 11 8 5 3 2 3 3 2 0 0 0 0 0 0 0 0 0 0 0 0 0 0
0 0 0 0 0 0 0 0 0 0 0 0 1 2 4 6 7 6 6 9 12 12 9 5 2 1 1 1 2 1 0 0 0 0 0 0 0 0 0 0 0 0 0 0
0 0 0 0 0 0 0 0 0 0 0 1 3 5 7 9 9 7 6 7 9 9 6 3 2 2 2 1 0 0 1 1 0 0 0 0 0 0 0 0 0 0 0 0
0 0 0 0 0 0 0 0 0 0 0 1 4 6 8 9 9 7 6 7 6 5 3 2 2 3 3 1 1 2 2 2 0 0 0 0 0 1 1 0 0 0 0 0
0 0 0 0 0 0 0 0 0 0 0 1 4 6 7 7 6 6 6 7 6 3 2 3 3 4 3 3 3 4 4 2 0 0 0 0 0 0 1 1 0 0 0 0
0 0 0 0 0 0 0 0 0 0 0 2 4 7 8 7 6 6 5 6 5 3 3 3 4 4 4 4 5 5 3 1 0 0 0 0 0 0 0 0 0 0 0 0
0 0 0 0 0 0 0 0 0 0 1 2 5 9 11 11 10 7 5 4 3 3 4 3 3 4 4 4 3 3 1 0 0 0 0 0 0 0 0 0 0 0 0 0
0 0 0 0 0 2 2 1 1 1 1 2 5 10 12 13 12 9 5 3 3 3 3 3 3 3 2 2 1 1 0 0 0 0 0 0 0 0 0 0 1 0 0 0
0 0 0 0 1 3 3 2 1 1 1 2 5 8 8 10 10 8 4 2 3 3 3 3 3 3 2 0 0 0 0 0 0 0 0 0 0 0 0 0 0 0 0 0
0 0 0 0 1 2 3 2 2 2 2 3 4 5 5 7 8 6 3 2 3 3 3 3 3 3 2 1 0 0 0 0 0 0 0 0 0 0 0 0 0 0 0 0

GEFSCGP_con_prob3kmehi_144.txt.gz
EHI
0 0 0 0 0 0 0 0 0 0 0 0 0 0 1 3 5 12 22 34 42 43 44 45 42 38 37 35 35 36 39 41 33 22 16 14 12 10 7 5 5 6 5 4
0 0 0 0 0 0 0 0 0 0 0 0 0 0 2 4 6 10 18 28 38 45 50 51 49 46 43 41 41 40 41 42 36 25 18 15 12 9 7 5 5 5 4 3
0 0 0 0 0 0 0 0 0 0 0 0 0 0 2 5 6 8 13 21 33 45 54 57 56 51 47 46 46 44 43 42 35 25 18 15 14 10 6 4 4 3 2 1
0 0 0 0 0 0 0 0 0 0 0 0 0 0 1 3 5 8 12 21 33 43 49 53 53 48 43 43 44 44 43 41 34 25 19 17 15 10 6 4 4 4 3 2
0 0 0 0 0 0 0 0 0 0 0 0 0 0 0 0 2 6 12 23 35 41 42 44 46 44 39 37 39 40 41 39 33 26 21 18 13 8 5 4 4 5 5 4
0 0 0 0 0 0 0 0 0 0 0 0 0 0 0 0 1 5 12 22 34 41 40 39 42 43 39 36 35 35 37 38 34 29 24 18 11 7 5 4 5 5 4 4
0 0 0 0 0 0 0 0 0 0 0 0 0 0 0 0 1 3 9 19 30 39 40 40 42 44 42 39 35 32 35 37 35 30 25 19 12 8 6 5 7 6 4 3
0 0 0 0 0 0 0 0 0 0 0 0 0 0 0 0 0 1 6 17 26 33 38 40 42 44 43 40 36 33 36 38 35 30 26 21 14 7 5 6 8 8 5 3
0 0 0 0 0 0 0 0 0 0 0 0 0 0 0 1 1 1 5 15 24 30 36 39 41 42 41 39 36 34 36 35 33 30 28 24 18 11 6 7 8 7 3 3
0 0 0 0 0 0 0 0 0 0 0 0 0 0 0 1 1 2 5 14 24 31 35 39 39 38 38 37 33 31 30 29 28 27 25 23 19 14 10 8 7 5 2 2
0 0 0 0 0 0 0 0 0 0 0 0 0 0 0 1 1 2 6 14 24 30 33 38 39 38 38 35 30 25 23 23 22 19 18 16 13 11 9 8 5 4 2 1
0 0 0 0 0 0 0 0 0 0 0 0 0 0 0 1 2 3 9 19 28 34 36 39 44 45 41 35 28 23 21 20 18 16 14 12 10 9 8 6 6 5 4 3
0 0 0 0 0 0 0 0 0 0 0 0 0 0 1 3 4 6 16 30 39 44 45 47 51 50 45 37 30 25 21 19 18 16 14 11 10 9 7 6 6 7 7 5
0 0 0 0 0 0 0 0 0 0 0 0 0 0 1 5 7 11 25 40 48 52 54 55 57 53 46 39 32 28 23 19 17 14 12 9 7 6 5 4 5 6 6 6
0 0 0 0 0 0 0 0 0 0 0 0 0 0 1 5 8 14 29 44 52 57 58 59 59 54 48 40 34 31 27 20 15 11 7 5 4 2 2 2 3 4 4 4
0 0 0 0 0 0 0 0 0 0 0 0 0 0 1 4 8 15 29 43 55 62 63 61 60 55 49 42 36 33 28 20 14 10 6 4 4 3 2 2 3 3 3 3
0 0 0 0 0 0 0 0 0 0 0 0 0 0 1 4 8 14 25 39 54 64 64 64 63 57 49 43 37 32 26 19 15 12 9 8 8 7 6 4 4 3 4 4
0 0 0 0 0 0 0 0 0 0 0 0 0 0 1 4 7 11 18 31 48 60 63 65 66 60 49 41 36 29 23 19 15 13 11 10 10 10 8 7 6 7 7 8
0 0 0 0 0 0 0 0 0 0 0 1 1 2 3 4 6 9 17 30 45 58 65 67 66 61 51 42 35 29 24 19 16 13 12 12 11 10 9 9 10 10 11 11
0 0 0 0 0 0 0 0 0 0 1 4 5 5 6 8 10 17 27 37 49 61 68 68 64 59 53 44 37 30 25 19 15 12 11 11 11 10 10 11 11 12 12 12
0 0 0 0 0 0 1 1 1 4 10 15 14 12 14 19 25 32 38 44 53 63 67 65 60 55 49 43 37 30 23 16 12 10 9 9 9 9 9 9 9 10 11 11
0 0 0 0 0 2 5 6 8 16 26 31 29 24 26 32 37 40 42 47 53 58 60 59 54 48 42 38 33 26 19 12 8 6 6 7 7 5 5 6 6 8 8 7
1 1 1 1 2 5 9 13 18 26 35 41 40 34 33 36 38 39 43 46 50 51 50 49 45 38 32 27 22 18 15 10 6 5 5 6 5 4 4 5 6 6 5 4
3 3 4 4 5 8 12 18 25 32 36 39 39 34 31 33 34 38 43 44 43 41 39 37 33 28 22 17 13 12 11 9 6 5 4 5 4 3 4 5 5 4 4 3
5 5 5 5 8 11 17 24 32 38 38 37 34 29 27 29 31 35 39 39 34 30 28 26 23 19 15 11 9 10 9 7 6 5 4 3 2 2 2 2 2 2 2 2
6 6 4 5 8 15 23 30 36 40 40 38 33 27 25 26 27 30 34 34 29 24 22 21 17 14 12 9 8 9 8 7 6 6 4 2 0 0 1 0 0 0 1 1

GEFSCGP_con_prob3kmehi_150.txt.gz
EHI
0 0 0 0 0 0 0 0 0 0 0 0 0 1 3 5 9 22 41 58 70 77 80 79 76 73 73 76 75 72 69 66 59 46 32 25 21 18 17 22 27 24 17 14
0 0 0 0 0 0 0 0 0 0 0 0 0 0 3 6 9 16 32 52 66 76 81 81 77 74 75 77 77 74 71 67 61 50 36 26 21 17 17 24 29 25 19 17
0 0 0 0 0 0 0 0 0 0 0 0 0 0 3 7 9 11 24 43 57 70 81 83 80 77 76 77 77 74 72 70 64 53 40 29 24 19 18 24 28 26 21 19
0 0 0 0 0 0 0 0 0 0 0 0 0 0 3 8 10 12 22 38 51 63 75 81 81 77 75 75 74 73 73 71 66 56 45 37 30 23 18 20 24 24 22 20
0 0 0 0 0 0 0 0 0 0 0 0 0 0 2 6 9 13 20 34 49 59 67 74 77 75 72 70 70 71 71 70 67 59 51 44 37 29 22 20 22 24 23 21
0 0 0 0 0 0 0 0 0 0 0 0 0 0 1 3 7 12 19 31 46 56 63 70 74 73 71 69 68 68 68 68 66 61 53 46 41 35 29 25 25 25 24 23
0 0 0 0 0 0 0 0 0 0 0 0 0 0 0 1 4 10 19 30 43 54 62 68 70 70 70 69 68 68 66 64 61 57 49 44 42 38 32 28 27 26 24 24
0 0 0 0 0 0 0 0 0 0 0 0 0 0 1 2 3 8 18 29 39 50 59 62 65 66 65 65 65 65 63 59 55 51 47 45 43 38 32 27 25 24 23 22
0 0 0 0 0 0 0 0 0 0 0 0 0 1 3 4 5 8 17 26 35 43 51 56 60 62 60 59 59 58 57 55 52 49 48 47 44 39 32 28 24 22 21 21
0 0 0 0 0 0 0 0 0 0 0 0 0 0 2 5 6 8 16 28 36 39 44 53 58 59 59 58 55 53 52 52 50 49 46 44 43 40 35 30 26 22 20 18
0 0 0 0 0 0 0 0 0 0 0 0 0 0 1 4 6 9 18 30 38 39 42 51 59 60 60 60 57 52 48 48 48 46 44 42 40 38 33 28 23 21 18 16
0 0 0 0 0 0 0 0 0 0 0 0 0 0 1 2 4 9 20 34 43 46 47 55 62 63 60 59 57 51 47 45 45 44 41 39 35 30 25 22 19 18 16 15
0 0 0 0 0 0 0 0 0 0 0 0 0 1 2 2 3 10 24 39 51 57 59 63 67 67 62 59 56 51 47 45 44 43 39 33 28 24 19 17 16 15 14 13
0 0 0 0 0 0 0 0 0 0 0 0 0 1 3 3 4 13 29 44 55 64 70 72 74 74 70 65 59 53 49 47 45 43 37 30 24 19 16 14 13 12 11 9
0 0 0 0 0 0 0 0 0 0 0 0 0 1 4 6 7 17 33 47 57 67 74 77 79 79 76 71 63 54 51 51 49 43 37 29 21 14 12 11 10 9 8 8
0 0 0 0 0 0 0 0 0 0 0 0 0 2 7 10 13 20 35 49 59 67 73 79 82 82 79 74 65 58 55 54 50 41 35 29 19 12 10 10 10 12 12 11
0 1 1 0 0 0 0 0 0 0 0 0 0 2 8 14 19 25 36 49 59 65 71 79 85 85 81 73 66 63 60 55 48 38 31 27 20 15 13 13 15 17 15 13
1 2 2 0 0 0 0 0 0 0 0 1 2 4 10 16 21 28 37 48 59 66 74 82 86 87 81 72 67 64 60 53 45 36 29 26 22 19 16 16 17 17 15 14
2 3 2 0 0 0 0 0 0 0 1 5 6 9 13 16 21 31 44 55 63 71 80 87 88 86 81 75 70 65 58 53 46 37 30 25 22 20 19 18 17 15 14 13
1 2 1 0 0 0 0 0 0 1 7 15 19 21 24 26 31 45 60 67 71 76 83 87 88 85 82 78 73 66 60 55 48 40 32 26 21 20 20 19 16 13 12 13
0 0 0 0 0 1 2 3 7 15 26 35 37 40 46 50 56 67 73 74 75 76 78 82 85 85 83 79 73 67 61 55 49 42 35 28 22 18 17 17 15 12 11 11
0 0 0 0 2 7 12 15 25 39 47 47 46 50 58 64 71 77 77 74 73 72 74 77 81 81 78 74 70 64 57 51 47 43 37 30 24 18 15 15 13 11 9 9
0 1 2 5 11 19 25 30 39 46 46 42 40 43 50 58 65 72 74 74 71 69 70 74 77 76 70 65 62 58 51 45 43 41 36 30 25 20 16 14 11 10 9 8
1 3 7 13 20 25 29 34 37 37 35 33 33 34 39 47 55 63 70 72 69 66 67 69 70 67 61 56 52 48 43 39 36 33 30 26 22 19 16 13 10 10 9 7
2 4 10 18 22 25 27 28 29 30 30 31 32 33 37 43 49 57 63 66 64 63 63 64 61 56 50 46 41 36 33 30 28 26 23 20 17 14 13 11 9 8 6 5
3 5 11 17 22 25 26 24 24 29 31 33 33 33 37 42 48 53 57 59 59 60 61 60 55 48 43 40 34 29 26 25 25 23 20 17 15 13 11 9 7 4 3 2

GEFSCGP_con_prob3kmehi_156.txt.gz
EHI
0 0 0 0 0 0 0 0 0 0 0 1 3 6 15 29 39 42 43 47 50 49 52 59 67 68 63 56 50 46 40 32 24 18 13 11 11 11 7 3 1 2 2 2
0 0 0 0 0 0 0 0 0 0 0 1 2 5 11 22 34 40 45 51 54 55 56 61 67 69 66 61 55 48 41 34 26 18 11 8 8 8 6 3 2 2 2 1
0 0 0 0 0 0 0 0 0 0 0 1 1 2 6 15 26 37 46 55 59 60 61 63 66 68 67 64 59 53 45 36 28 19 11 7 5 4 4 3 3 3 2 1
0 0 0 0 0 0 0 0 0 0 0 0 0 0 3 12 25 36 46 55 61 61 62 63 63 64 64 63 61 57 51 40 29 21 15 10 7 4 2 2 3 3 3 3
0 0 0 0 0 0 0 0 0 0 0 0 0 0 3 11 23 35 45 55 61 61 60 60 60 59 61 62 61 59 54 44 33 24 18 13 10 6 3 3 4 4 4 4
0 0 0 0 0 0 0 0 0 0 0 0 0 0 2 8 19 32 45 54 59 59 57 55 55 56 58 60 63 61 55 47 37 28 21 16 12 8 6 5 6 5 4 5
0 0 0 0 0 0 0 0 0 0 0 0 0 0 1 5 17 33 46 53 56 56 54 52 52 54 57 61 64 63 56 47 39 32 25 19 13 10 8 7 6 5 6 6
0 0 0 0 0 0 0 0 0 0 0 0 0 1 3 9 22 37 45 48 51 53 53 52 51 53 57 61 62 59 52 44 39 34 28 21 15 11 9 6 5 4 5 6
0 0 0 0 0 0 0 0 0 0 0 0 0 1 5 16 30 39 41 42 45 50 53 52 51 51 54 56 55 52 47 42 38 34 28 23 16 11 8 6 4 4 4 4
0 0 0 0 0 0 0 0 0 0 0 0 0 0 5 16 29 35 37 37 39 45 49 50 51 50 49 50 50 47 43 39 34 30 25 21 16 10 7 6 5 4 3 3
0 0 0 0 0 0 0 0 0 0 0 0 0 0 3 10 21 29 32 32 33 38 45 50 49 48 49 50 49 44 39 35 29 25 22 19 14 10 7 6 5 4 3 2
0 0 0 0 0 0 0 0 0 0 0 0 0 0 2 6 15 24 30 31 32 36 43 48 48 48 50 52 50 44 39 34 27 21 19 16 12 8 6 5 4 2 1 1
0 0 0 0 0 0 0 0 0 0 0 0 0 0 2 7 14 24 33 37 40 43 46 49 51 52 53 53 50 46 41 34 26 20 16 12 7 4 3 2 2 1 0 0
0 0 0 0 0 0 0 0 0 0 0 0 0 1 4 10 17 26 36 45 51 54 53 54 56 57 57 54 51 46 39 32 26 21 15 8 4 1 1 1 1 1 0 1
0 0 0 0 0 0 0 0 0 0 0 0 0 1 4 11 18 27 38 50 59 62 59 57 59 60 60 58 53 45 37 31 27 22 14 7 4 3 2 1 2 1 1 1
0 0 0 0 0 0 0 0 0 0 1 1 1 3 7 13 21 30 43 56 64 66 63 60 61 62 63 61 56 46 38 33 29 24 16 8 6 5 3 2 1 1 0 1
0 0 0 0 0 0 0 0 0 2 5 6 6 9 15 21 27 34 45 59 68 69 68 66 65 66 66 62 57 48 40 35 31 26 18 12 8 7 5 3 1 1 0 0
0 0 0 0 0 0 0 0 1 4 10 14 16 19 24 30 32 35 43 56 66 70 71 70 69 71 68 63 57 49 42 35 30 25 18 11 8 7 6 5 3 1 0 0
0 0 0 0 0 0 1 2 3 8 16 22 27 30 34 38 38 38 42 50 60 68 71 72 73 73 70 65 61 55 46 36 27 20 14 9 7 6 6 5 3 1 0 0
0 0 0 0 0 1 4 7 8 11 19 28 35 40 41 42 41 39 42 49 58 65 71 73 74 74 72 68 65 60 49 35 23 16 11 8 6 6 5 3 1 0 0 0
0 0 0 0 0 2 7 11 10 12 19 29 39 44 44 43 44 44 47 55 62 66 70 73 74 73 70 66 62 56 44 29 19 14 10 7 6 5 3 1 0 0 0 0
0 0 0 0 0 2 7 9 10 13 21 30 39 44 45 49 53 55 58 62 67 69 69 69 68 66 61 57 53 46 35 25 17 12 7 5 4 3 1 0 0 0 0 0
0 0 1 2 3 5 8 9 11 18 26 33 38 43 46 51 57 60 61 63 66 66 64 61 59 56 51 46 43 38 29 21 15 9 5 3 3 2 1 0 0 0 0 0
0 1 3 5 7 9 10 11 14 19 28 34 39 43 44 46 51 53 54 56 58 57 53 50 50 47 42 37 34 30 22 16 11 7 4 3 3 2 1 0 0 0 0 0
1 2 4 6 8 9 9 10 13 18 24 31 38 41 40 41 43 46 46 46 45 41 37 37 40 39 33 28 25 21 16 12 10 8 6 4 3 1 0 0 0 0 0 0
3 3 4 5 7 7 7 8 11 17 23 29 36 38 37 37 40 43 41 36 33 30 26 27 30 32 29 23 19 17 14 11 9 9 7 5 3 1 0 1 1 1 0 0

GEFSCGP_con_prob3kmehi_162.txt.gz
EHI
0 0 0 0 0 0 0 0 0 0 1 1 1 1 4 11 20 25 24 25 28 28 25 24 24 23 22 20 17 15 13 9 5 4 4 3 2 1 1 0 0 0 0 0
0 0 0 0 0 0 0 0 0 0 0 0 0 0 2 7 14 19 22 24 28 30 29 28 28 28 26 23 20 17 14 10 6 5 4 2 1 1 1 0 0 0 0 0
0 0 0 0 0 0 0 0 0 0 0 0 0 0 1 4 7 10 16 21 27 32 33 33 33 32 29 26 23 20 16 11 7 5 4 2 1 1 1 1 1 0 0 0
0 0 0 0 0 0 0 0 0 0 0 0 0 0 1 2 3 5 11 19 27 32 35 36 35 32 28 25 24 21 17 12 8 4 3 3 2 2 2 2 1 0 0 0
0 0 0 0 0 0 0 0 0 0 0 0 0 0 0 1 3 4 9 17 24 29 33 34 34 31 26 24 24 21 16 11 7 5 4 3 2 1 1 1 1 0 0 0
0 0 0 0 0 0 0 0 0 0 0 0 0 0 0 1 2 5 10 17 20 23 27 29 30 29 26 25 25 22 17 11 7 5 3 3 3 1 0 0 0 0 0 0
0 0 0 0 0 0 0 0 0 0 0 0 0 0 0 0 1 4 8 15 19 19 21 24 27 28 28 28 27 25 20 14 9 6 3 2 2 1 0 0 0 1 1 1
0 0 0 0 0 0 0 0 0 0 0 0 0 0 0 0 1 3 7 13 18 19 19 21 24 27 29 30 30 26 21 17 13 9 6 3 2 0 0 0 1 2 2 2
0 0 0 0 0 0 0 0 0 0 0 0 0 0 0 0 1 4 7 12 19 21 20 19 21 24 28 31 30 26 21 17 14 12 9 6 2 0 0 0 1 2 1 1
0 0 0 0 0 0 0 0 0 0 0 0 0 0 0 0 1 4 7 12 20 23 22 20 20 22 25 28 27 24 20 16 13 11 10 7 2 0 0 0 1 1 0 0
0 0 0 0 0 0 0 0 0 0 0 0 0 0 0 0 1 4 6 12 19 23 22 21 21 22 23 25 25 23 18 13 10 9 8 5 2 0 0 0 0 0 0 0
0 0 0 0 0 0 0 0 0 0 0 0 0 0 0 0 1 3 7 12 18 22 22 21 23 24 24 25 25 23 19 12 9 8 7 4 1 0 0 0 0 0 0 0
0 0 0 0 0 0 0 0 0 0 0 0 0 0 0 1 1 4 10 15 18 20 22 25 27 26 25 25 26 24 19 13 10 9 7 3 1 0 0 0 0 0 0 0
0 0 0 0 0 0 0 0 0 0 0 0 0 0 1 2 2 6 14 19 20 22 24 27 30 28 24 23 24 23 19 15 13 11 7 2 0 0 0 0 0 1 0 0
0 0 0 0 0 0 0 0 0 0 0 0 0 1 2 3 3 8 17 24 27 26 25 27 31 30 25 23 24 25 23 19 16 13 8 3 2 1 0 0 0 0 0 0
0 0 0 0 0 0 0 0 0 0 0 0 1 2 3 5 6 11 21 31 34 31 28 30 34 36 33 30 31 30 27 22 18 13 9 6 5 3 1 1 1 1 0 0
0 0 0 0 0 0 0 1 1 1 2 2 2 3 4 7 11 15 24 34 37 36 35 35 37 40 39 39 39 35 28 23 19 14 11 8 6 4 2 2 2 1 0 0
0 0 0 0 0 0 1 3 4 5 5 5 5 6 8 12 16 20 26 33 36 38 38 36 36 38 38 40 41 36 29 24 19 15 11 7 5 3 2 1 1 1 0 0
0 0 0 0 0 0 2 5 7 7 7 7 8 11 13 16 19 22 25 31 34 35 34 33 36 38 38 40 42 38 30 22 18 14 9 4 3 3 3 2 1 0 0 0
0 0 0 0 0 0 2 5 6 6 7 8 11 15 16 18 21 22 24 30 35 35 32 32 37 41 40 39 42 38 29 20 15 12 7 3 3 4 4 3 2 1 0 0
0 0 0 0 0 0 2 5 4 3 6 10 14 15 16 19 21 22 27 34 38 37 34 33 37 40 36 35 37 34 25 18 14 11 7 4 3 4 3 3 2 1 0 0
0 0 0 0 0 0 3 5 4 3 6 11 13 13 15 19 23 27 33 39 41 39 37 34 35 36 31 30 32 28 22 17 14 11 8 5 3 3 3 3 1 0 0 0
1 1 1 1 1 2 4 7 7 5 7 9 11 13 18 23 26 28 32 38 39 38 35 31 29 29 26 25 25 23 18 15 14 12 8 5 4 3 3 2 1 0 0 0
0 1 2 2 3 4 5 7 8 6 6 9 13 17 21 25 26 24 27 31 33 31 27 23 20 20 20 20 19 17 13 11 12 11 8 5 4 4 3 1 0 0 0 0
0 0 1 2 2 2 4 5 6 6 6 10 15 17 19 21 23 22 23 25 25 21 18 14 11 12 13 15 14 11 8 7 9 9 7 5 4 4 2 1 0 0 0 0
0 0 0 1 0 1 2 4 5 6 7 9 13 16 15 17 20 21 21 21 19 17 13 10 9 9 9 11 11 9 6 5 6 7 6 6 5 4 2 0 0 0 0 0

GEFSCGP_con_prob3kmehi_168.txt.gz
EHI
0 0 0 0 0 0 0 0 0 0 0 0 0 1 2 3 4 7 14 18 18 19 22 23 25 27 31 35 37 37 35 33 30 24 17 11 6 2 1 2 2 1 1 0
0 0 0 0 0 0 0 0 0 0 0 0 0 1 3 3 3 6 12 16 17 21 28 32 34 33 35 39 39 37 37 35 30 24 17 12 7 3 2 3 3 2 1 1
0 0 0 0 0 0 0 0 0 0 0 0 0 1 2 3 2 4 9 13 16 22 33 41 42 38 35 37 38 37 41 39 33 24 17 13 9 5 3 4 4 2 2 2
0 0 0 0 0 0 0 0 0 0 0 0 0 0 1 1 2 4 9 12 16 24 34 42 44 38 31 30 33 39 43 43 37 29 21 15 11 7 5 4 4 3 2 2
0 0 0 0 0 0 0 0 0 0 0 0 0 0 0 0 1 5 10 14 18 25 32 39 42 35 25 23 29 37 43 44 41 35 29 22 14 9 7 5 4 4 3 3
0 0 0 0 0 0 0 0 0 0 0 0 0 0 0 0 1 3 9 16 22 26 30 36 39 35 26 22 27 35 42 43 40 36 32 26 19 14 12 9 6 6 5 5
0 0 0 0 0 0 0 0 0 0 0 0 0 0 0 0 0 2 6 14 24 29 31 36 39 39 34 30 31 37 42 42 36 31 28 26 22 19 17 12 9 8 6 5
0 0 0 0 0 0 0 0 0 0 0 0 0 0 0 0 0 1 4 13 24 32 36 38 39 40 40 37 36 40 43 41 34 28 25 25 24 22 18 14 11 8 6 5
0 0 0 0 0 0 0 0 0 0 0 0 0 0 0 0 0 2 5 13 24 34 40 40 37 36 36 35 35 39 43 40 34 28 25 26 27 25 21 17 12 8 7 6
0 0 0 0 0 0 0 0 0 0 0 0 0 0 0 0 2 4 7 14 27 37 40 41 38 35 33 31 33 39 41 40 36 31 28 28 29 28 23 18 14 10 7 5
0 0 0 0 0 0 0 0 0 0 0 0 0 0 0 1 3 5 8 17 31 39 39 40 42 39 34 33 36 40 40 38 36 33 30 30 30 27 22 18 16 13 8 6
0 0 0 0 0 0 0 0 0 0 0 0 0 0 0 1 4 7 12 21 33 41 43 44 46 44 40 39 41 42 39 36 34 33 34 34 31 24 20 19 19 17 12 8
0 0 0 0 0 0 0 0 0 0 0 0 0 0 0 2 7 12 18 26 37 48 53 54 55 53 50 49 49 46 41 37 35 37 39 37 31 25 21 21 21 18 14 11
0 0 0 0 0 0 0 0 0 0 0 0 0 0 2 5 10 16 22 29 41 55 63 65 67 67 63 60 56 52 48 45 44 45 45 40 35 30 26 23 20 16 13 12
0 0 0 0 0 0 0 0 0 0 0 0 0 2 5 7 11 16 23 30 42 57 69 75 77 76 72 67 64 60 59 58 57 55 51 47 43 37 30 23 19 17 15 12
0 0 0 0 0 0 0 0 0 0 0 0 1 3 7 9 11 16 24 32 42 55 66 75 80 80 77 74 71 68 67 66 65 63 59 55 49 39 30 23 20 19 17 14
0 0 0 0 0 0 0 0 0 0 1 2 4 7 12 15 17 22 29 36 43 51 59 68 76 80 81 78 73 70 68 67 68 68 66 61 52 40 31 27 25 22 19 16
0 0 0 0 0 0 0 0 0 1 4 8 11 15 19 23 24 25 32 40 47 53 59 65 70 75 79 78 72 67 66 67 69 70 69 62 53 42 36 34 31 26 22 19
0 0 0 0 0 0 0 0 1 3 8 15 21 23 24 23 21 25 35 42 48 57 64 66 66 70 76 77 73 69 68 69 70 69 66 59 51 43 39 36 32 28 24 23
0 0 0 0 0 1 2 3 3 5 13 23 28 28 26 23 23 31 40 43 47 56 63 65 66 71 78 79 76 73 70 68 67 64 59 53 47 42 38 34 30 27 25 24
0 0 0 0 0 3 8 9 9 16 27 35 35 33 32 30 33 40 45 46 49 53 58 62 66 73 78 79 76 73 69 65 62 58 52 46 43 39 36 32 29 26 24 23
1 1 1 1 3 9 17 20 23 34 46 47 43 41 40 38 40 45 48 50 52 54 56 59 63 68 73 73 70 68 66 64 61 57 51 45 41 37 34 32 29 24 22 22
4 5 6 7 10 17 25 30 34 43 51 50 47 46 44 42 43 48 52 53 53 53 53 54 55 58 60 62 60 59 59 60 59 57 53 46 39 35 32 30 25 21 20 20
6 9 13 14 16 21 25 29 33 38 43 46 46 45 44 43 45 49 52 53 51 50 48 47 46 46 46 47 48 49 49 50 51 52 48 41 35 31 29 25 21 17 16 16
5 9 13 15 17 19 20 21 24 27 32 36 37 37 37 38 40 42 43 45 44 43 42 40 38 37 36 37 38 39 39 41 44 44 39 33 30 28 26 21 17 13 11 10
3 6 10 14 16 17 17 17 17 19 22 27 28 28 29 32 34 34 35 37 37 37 38 36 34 33 33 34 34 34 35 38 41 39 31 27 27 27 24 20 15 10 7 4

GEFSCGP_con_prob3kmehi_174.txt.gz
EHI
0 0 0 0 0 0 0 0 0 0 0 0 0 1 2 2 5 15 30 41 49 56 60 61 59 63 73 84 85 76 63 52 42 35 32 28 25 24 26 30 27 18 9 5
0 0 0 0 0 0 0 0 0 0 0 0 0 1 2 3 3 11 25 39 50 60 68 70 66 66 74 85 86 77 67 57 48 40 35 29 26 25 25 30 30 22 12 9
0 0 0 0 0 0 0 0 0 0 0 0 0 1 2 2 2 7 16 30 46 62 75 79 74 71 76 83 85 80 73 63 53 46 38 31 27 25 27 34 37 30 20 16
0 0 0 0 0 0 0 0 0 0 0 0 0 1 2 2 3 5 10 20 37 57 73 79 79 76 75 79 84 83 78 68 57 48 40 33 30 28 31 40 42 36 27 21
0 0 0 0 0 0 0 0 0 0 0 0 0 0 1 2 3 5 9 16 29 47 64 75 80 78 74 74 80 83 80 73 62 52 42 36 33 32 34 40 40 36 30 25
0 0 0 0 0 0 0 0 0 0 0 0 0 0 0 1 3 6 9 16 28 42 57 71 78 78 73 71 76 82 81 76 68 56 45 40 37 35 36 39 38 34 31 30
0 0 0 0 0 0 0 0 0 0 0 0 0 0 0 1 3 6 9 15 27 40 52 64 73 75 74 72 76 80 81 77 70 60 50 44 39 37 39 42 41 37 33 31
0 0 0 0 0 0 0 0 0 0 0 0 0 0 0 1 3 5 8 12 21 33 45 57 67 73 75 75 76 80 80 78 72 64 57 50 42 38 41 43 41 39 34 27
0 0 0 0 0 0 0 0 0 0 0 0 0 0 1 2 4 6 9 12 17 26 39 53 65 71 73 75 77 79 79 77 73 67 61 54 47 44 46 43 38 35 29 23
0 0 0 0 0 0 0 0 0 0 0 0 0 0 2 5 7 10 14 17 21 27 38 53 64 68 69 74 77 77 77 78 75 70 63 56 52 52 51 45 37 30 24 20
0 0 0 0 0 0 0 0 0 0 0 0 0 1 4 7 9 12 17 23 26 30 40 54 64 65 64 69 75 76 77 78 78 74 67 60 57 56 53 46 38 28 21 18
0 0 0 0 0 0 0 0 0 0 0 0 0 2 5 8 10 11 16 23 29 34 43 56 66 66 64 68 73 75 77 79 79 76 71 65 61 57 53 47 40 32 25 21
0 0 0 0 0 0 0 0 0 0 0 0 1 3 7 10 12 13 17 24 30 39 51 62 70 73 72 73 76 75 75 78 78 76 74 69 63 58 53 48 42 36 29 24
0 0 0 0 0 0 0 0 0 0 0 0 1 4 9 12 14 17 22 29 36 47 62 72 78 82 82 82 82 78 76 77 78 78 76 71 64 59 55 50 45 39 30 24
0 0 0 0 0 0 0 0 0 0 0 0 1 5 11 15 17 21 27 34 43 55 69 79 86 90 91 90 88 84 81 81 82 80 78 74 68 63 59 54 48 41 31 25
0 0 0 0 0 0 0 0 0 0 0 0 2 7 13 17 22 27 32 38 47 57 68 80 90 95 96 95 91 87 86 86 85 82 80 77 73 69 64 57 51 44 37 33
0 0 0 0 0 0 0 0 0 0 1 1 4 11 17 23 30 39 44 47 53 60 69 80 89 94 96 95 90 86 85 84 82 80 79 78 76 73 68 61 54 49 42 39
0 0 0 0 0 0 0 1 1 1 3 6 10 17 24 30 39 50 57 59 62 69 75 80 85 90 93 93 89 84 82 82 81 80 80 80 78 75 70 65 59 52 45 40
0 0 0 0 0 0 1 1 2 3 7 13 21 26 29 33 40 52 61 65 70 75 78 79 82 85 89 91 90 86 83 84 84 82 82 82 81 76 72 68 60 52 46 42
0 0 0 0 0 1 2 2 2 6 14 24 32 35 37 41 46 53 60 67 73 75 75 76 78 81 85 88 89 87 86 86 85 83 83 83 80 75 71 66 59 52 47 44
0 0 0 0 0 3 6 7 9 19 33 42 44 46 51 56 58 58 61 66 71 74 73 74 76 78 79 82 85 86 86 84 82 81 82 79 73 68 66 63 58 53 47 43
1 2 3 4 7 13 20 23 30 43 54 57 55 54 58 61 60 60 62 63 66 69 70 70 72 73 72 73 77 80 81 78 75 75 75 72 66 61 59 60 58 54 48 43
4 8 11 14 20 27 33 38 47 56 61 59 55 53 53 54 56 58 61 61 61 62 64 65 66 66 66 66 67 69 71 69 66 66 68 66 62 57 56 56 54 49 44 39
8 12 18 24 30 33 35 37 43 49 52 50 48 46 46 49 54 57 58 57 56 57 59 60 60 60 60 60 60 60 61 61 59 60 62 62 59 55 52 48 43 38 33 30
9 13 21 26 29 31 31 29 31 35 38 40 41 40 41 45 49 52 54 53 51 53 55 55 54 53 53 55 57 56 56 56 54 54 55 55 53 48 42 36 29 23 20 18
8 14 21 25 27 29 29 26 25 26 30 35 37 36 37 41 45 47 49 49 48 50 51 50 49 48 48 51 55 54 53 52 50 49 49 48 48 43 36 29 22 14 11 10

GEFSCGP_con_prob3kmehi_180.txt.gz
EHI
0 0 0 0 0 0 0 0 0 0 0 0 0 1 2 4 13 24 30 32 36 38 40 48 56 59 57 52 45 41 36 28 19 13 9 6 6 6 6 4 2 3 5 5
0 0 0 0 0 0 0 0 0 0 0 0 0 0 1 4 10 21 30 35 40 43 48 54 60 63 64 61 53 46 40 30 21 15 12 10 7 5 4 4 2 3 5 4
0 0 0 0 0 0 0 0 0 0 0 0 0 0 1 3 7 15 26 37 45 48 53 59 63 66 70 69 64 56 47 36 25 18 17 17 14 8 4 3 2 3 4 4
0 0 0 0 0 0 0 0 0 0 0 0 0 0 1 3 6 11 23 37 46 49 53 58 63 67 71 73 70 62 53 43 31 23 22 23 21 14 6 3 3 3 3 3
0 0 0 0 0 0 0 0 0 0 0 0 0 0 1 2 5 11 23 37 46 50 53 58 62 66 71 75 72 64 55 47 36 28 24 25 24 18 10 5 4 3 3 2
0 0 0 0 0 0 0 0 0 0 0 0 0 0 0 1 5 14 25 38 47 54 57 59 61 65 70 75 73 65 58 51 41 32 26 25 24 20 14 9 6 4 2 1
0 0 0 0 0 0 0 0 0 0 0 0 0 0 0 1 5 14 25 36 48 57 59 57 58 62 68 72 71 65 61 56 45 36 29 24 21 19 16 12 7 4 2 1
0 0 0 0 0 0 0 0 0 0 0 0 0 0 0 2 6 14 23 34 46 53 54 53 55 60 65 68 68 66 63 58 49 41 33 24 19 17 18 14 8 4 2 1
0 0 0 0 0 0 0 0 0 0 0 0 0 1 2 5 11 18 26 35 41 45 48 50 52 58 63 65 65 65 64 59 52 46 38 28 21 19 19 16 11 6 4 3
0 0 0 0 0 0 0 0 0 0 0 0 0 0 2 8 14 21 29 36 38 41 47 51 52 55 60 60 60 62 63 61 55 50 44 33 25 21 20 18 14 10 7 6
0 0 0 0 0 0 0 0 0 0 0 0 0 0 2 8 15 22 29 33 34 39 47 52 52 54 57 58 59 61 64 62 58 55 49 38 28 23 22 21 16 11 9 9
0 0 0 0 0 0 0 0 0 0 0 0 0 1 4 10 15 21 29 32 33 37 45 50 53 54 57 60 61 62 64 63 60 57 51 41 32 27 26 23 17 13 12 11
0 0 0 0 0 0 0 0 0 0 0 0 0 3 7 12 16 21 27 33 35 39 45 50 54 58 60 62 62 61 62 62 60 58 54 46 38 33 29 23 19 16 14 12
0 0 0 0 0 0 0 0 0 0 0 0 1 5 9 14 18 22 27 33 36 41 45 50 54 56 58 61 63 61 60 61 60 58 56 51 43 36 29 23 20 18 15 12
0 0 0 0 0 0 0 0 0 0 0 1 3 7 11 15 22 26 30 34 37 41 47 51 52 53 56 62 66 66 63 63 62 60 57 51 43 36 30 25 22 19 15 12
0 0 0 0 0 0 0 0 0 0 1 2 6 10 14 19 26 31 34 37 38 44 52 56 54 54 58 65 70 71 69 68 68 64 59 53 46 39 34 28 23 19 15 12
0 0 0 0 0 0 0 1 2 4 5 7 10 15 20 26 32 35 37 40 43 48 54 58 56 57 60 64 67 70 70 70 71 68 63 58 52 45 39 32 24 19 16 12
0 0 0 0 0 0 1 3 6 10 13 14 15 21 29 35 39 43 44 46 50 50 50 52 55 59 61 59 59 63 65 66 68 68 64 60 56 52 46 36 26 20 17 13
0 0 0 0 0 0 1 3 6 11 16 18 20 27 35 42 45 48 51 52 53 51 48 47 52 57 58 55 54 57 60 61 62 64 62 59 57 54 48 38 28 21 17 14
0 0 0 0 0 0 0 1 3 7 12 16 21 28 35 41 44 46 49 50 51 51 49 47 49 52 52 50 50 54 56 56 56 57 57 55 53 49 44 36 28 22 17 15
0 0 0 0 0 0 0 1 1 3 7 14 20 27 32 36 39 41 45 47 49 51 50 49 49 50 49 48 50 52 52 51 52 52 51 50 48 44 39 34 30 25 21 19
0 0 0 0 0 0 1 2 2 3 8 15 22 28 33 36 38 41 44 46 47 48 48 48 49 49 48 48 49 49 48 47 48 48 46 45 44 42 38 34 31 28 25 23
0 0 1 3 4 4 6 6 5 6 10 17 22 27 32 36 39 41 42 43 43 43 43 43 44 46 46 45 44 42 40 41 41 40 37 36 37 37 36 33 30 29 28 25
0 0 3 6 7 8 12 13 11 9 11 16 20 25 29 32 35 36 37 38 38 37 36 35 36 39 39 38 36 34 33 32 31 30 28 26 28 31 32 30 27 28 28 26
0 0 2 4 5 7 10 12 11 11 12 14 17 21 23 24 27 31 32 32 31 30 28 26 26 27 28 28 29 29 28 27 25 24 21 20 22 25 27 25 22 21 20 18
0 0 0 1 2 3 4 6 9 12 13 14 16 18 18 20 24 28 29 26 25 25 22 19 18 19 20 22 24 26 27 26 24 20 18 17 19 21 22 20 16 13 10 8

GEFSCGP_con_prob3kmehi_186.txt.gz
EHI
0 0 0 0 0 0 0 0 0 0 0 0 0 0 0 2 3 4 4 4 4 3 4 9 18 24 23 19 19 17 10 3 4 7 9 9 7 3 1 0 0 0 1 1
0 0 0 0 0 0 0 0 0 0 0 0 0 0 0 2 3 4 5 5 4 4 7 13 21 27 26 23 22 19 11 4 3 6 8 7 5 2 0 0 0 0 0 1
0 0 0 0 0 0 0 0 0 0 0 0 0 0 0 1 2 3 4 5 4 6 10 16 23 29 30 27 24 21 14 6 4 7 9 8 4 2 1 0 0 0 0 0
0 0 0 0 0 0 0 0 0 0 0 0 0 0 0 0 1 2 3 3 4 7 12 17 23 29 30 27 23 22 17 10 7 10 13 11 6 3 1 0 0 0 0 0
0 0 0 0 0 0 0 0 0 0 0 0 0 0 0 0 0 1 2 2 4 8 13 18 23 28 29 25 23 24 21 15 12 13 15 12 8 5 3 1 0 0 0 0
0 0 0 0 0 0 0 0 0 0 0 0 0 0 0 0 0 0 0 2 6 10 15 20 25 29 29 26 25 26 24 19 15 15 14 12 9 8 6 3 2 0 0 0
0 0 0 0 0 0 0 0 0 0 0 0 0 0 0 0 0 0 0 3 8 13 18 23 28 32 33 29 26 27 26 22 17 15 15 12 10 9 8 6 3 1 0 0
0 0 0 0 0 0 0 0 0 0 0 0 0 0 0 0 0 1 2 6 11 15 19 24 28 33 35 32 30 30 29 24 19 17 16 14 12 11 9 6 3 1 1 1
0 0 0 0 0 0 0 0 0 0 0 0 0 0 0 0 1 3 6 9 13 14 17 21 25 31 34 34 33 35 34 29 23 21 19 18 16 14 11 8 6 3 3 3
0 0 0 0 0 0 0 0 0 0 0 0 0 0 0 0 1 5 8 10 12 13 15 17 22 29 31 31 32 33 33 29 25 23 22 22 20 17 14 13 11 8 7 7
0 0 0 0 0 0 0 0 0 0 0 0 0 0 0 0 2 5 8 11 13 15 15 17 23 28 29 28 28 27 27 25 23 21 22 24 22 19 16 16 14 12 11 10
0 0 0 0 0 0 0 0 0 0 0 0 0 0 1 2 4 6 9 12 15 18 18 19 24 29 30 29 28 24 22 21 20 20 23 25 24 20 18 16 15 12 10 9
0 0 0 0 0 0 0 0 0 0 0 0 0 1 3 7 9 10 10 12 16 19 20 21 24 29 31 31 29 24 20 19 20 23 26 28 26 23 18 16 13 11 8 6
0 0 0 0 0 0 0 0 0 0 0 0 0 2 6 11 14 13 12 13 17 20 21 21 22 25 28 30 30 26 22 20 22 25 29 30 29 27 22 18 14 10 6 4
0 0 0 0 0 0 0 0 0 0 0 0 1 3 8 14 17 17 16 16 18 20 21 21 21 23 26 30 31 28 25 25 26 29 31 32 32 31 27 22 17 11 6 4
0 0 0 0 0 0 0 0 0 1 1 1 2 4 9 17 22 22 21 21 21 21 22 21 21 23 27 30 31 28 28 31 34 36 36 36 35 34 29 23 18 13 10 8
0 0 0 0 0 0 0 0 0 1 2 1 2 4 10 17 21 22 21 20 20 19 18 18 20 24 26 28 30 29 31 35 39 40 39 38 38 36 29 23 20 18 16 15
0 0 0 0 0 0 0 0 0 1 2 2 3 6 10 13 16 18 18 16 15 13 13 14 17 21 23 24 27 28 30 33 37 40 40 39 39 36 30 26 23 21 20 18
0 0 0 0 0 0 0 0 0 0 1 2 5 8 10 11 13 15 16 16 14 12 13 15 18 22 25 25 26 28 31 33 35 38 39 39 37 35 31 26 23 22 20 17
0 0 0 0 0 0 0 0 0 0 0 1 6 11 12 11 11 13 16 19 20 19 19 21 23 27 30 30 29 31 33 35 36 38 38 39 37 35 31 25 21 20 19 16
0 0 0 0 0 0 0 0 0 0 0 2 7 13 14 11 11 14 17 19 23 24 23 23 25 27 29 30 31 33 34 36 38 39 40 40 37 33 28 24 20 19 17 14
0 0 0 0 0 0 0 0 0 0 0 2 8 13 15 13 13 14 17 18 20 22 23 22 22 22 21 23 26 29 31 32 34 37 39 37 34 31 28 25 22 19 16 13
0 0 0 0 0 0 0 1 1 0 1 4 9 12 14 14 13 12 12 15 17 19 21 21 19 18 15 15 19 21 23 25 26 28 31 31 29 28 27 26 25 22 17 15
0 0 0 0 0 0 1 2 2 2 4 7 9 10 11 11 10 9 8 11 15 17 19 19 17 14 12 12 14 16 18 20 20 21 24 24 24 25 24 23 22 20 18 17
0 0 0 0 0 0 2 3 3 5 7 8 8 8 8 8 8 9 8 9 11 13 14 15 14 12 11 12 13 15 17 18 17 18 20 20 19 20 19 16 14 12 11 12
0 0 0 0 0 0 1 3 4 5 7 8 7 7 6 6 8 10 10 9 8 9 10 11 11 10 11 12 13 15 16 16 16 18 19 18 17 15 14 13 9 5 4 5

GEFSCGP_con_prob3kmehi_192.txt.gz
EHI
0 0 0 0 0 0 0 0 0 0 0 0 0 0 2 7 8 7 7 8 9 6 7 11 16 22 30 37 38 35 31 30 29 21 14 12 10 7 5 4 3 1 1 2
0 0 0 0 0 0 0 0 0 0 0 0 0 0 2 6 8 7 7 8 7 6 10 15 19 25 32 38 40 37 34 32 30 23 14 11 9 7 6 6 3 1 1 2
0 0 0 0 0 0 0 0 0 0 0 0 0 0 1 3 6 7 7 7 6 8 15 21 25 29 33 38 40 38 38 37 34 27 18 13 10 7 7 8 5 1 1 2
0 0 0 0 0 0 0 0 0 0 0 0 0 0 0 1 4 7 7 6 6 9 17 25 30 31 33 38 40 40 42 43 41 34 27 20 14 9 8 9 6 2 1 1
0 0 0 0 0 0 0 0 0 0 0 0 0 0 0 0 2 6 8 8 7 10 16 24 29 31 32 36 40 43 45 48 47 42 37 30 20 13 10 10 9 6 4 4
0 0 0 0 0 0 0 0 0 0 0 0 0 0 0 0 0 3 7 8 9 11 16 22 28 32 33 35 40 44 47 50 50 47 43 36 28 21 17 14 14 11 8 7
0 0 0 0 0 0 0 0 0 0 0 0 0 0 0 0 0 1 4 8 11 13 17 24 31 37 39 40 43 48 51 52 50 48 44 38 32 26 21 17 16 14 10 8
0 0 0 0 0 0 0 0 0 0 0 0 0 0 0 1 1 2 5 10 14 16 19 25 32 40 43 45 50 56 58 55 51 48 44 39 32 23 18 17 15 14 12 8
0 0 0 0 0 0 0 0 0 0 0 0 0 0 1 3 4 6 10 16 19 19 21 25 31 38 42 45 50 55 57 54 49 46 42 38 31 22 17 17 18 19 17 13
0 0 0 0 0 0 0 0 0 0 0 0 0 0 2 5 7 10 15 22 24 23 25 30 35 39 40 42 46 50 52 50 45 41 39 36 32 28 24 23 26 28 26 22
0 0 0 0 0 0 0 0 0 0 0 0 0 1 4 7 10 13 19 24 27 28 32 38 42 41 41 43 46 48 50 50 46 42 40 38 37 36 32 31 34 36 34 31
0 0 0 0 0 0 0 0 0 0 0 0 0 1 6 12 17 21 26 29 31 34 40 45 48 48 48 48 47 47 48 50 49 47 47 45 43 42 40 40 43 44 40 36
0 0 0 0 0 0 0 0 0 0 0 0 0 2 10 20 27 32 36 37 39 42 47 52 55 57 57 54 50 47 46 47 47 48 51 51 48 47 47 47 48 49 45 41
0 0 0 0 0 0 0 0 0 0 0 0 0 4 13 24 32 37 40 41 44 48 53 55 58 62 64 62 58 54 52 50 49 50 52 50 48 48 49 50 50 49 46 43
0 0 0 0 0 0 0 0 0 0 0 0 0 5 15 25 31 36 38 40 43 49 54 55 56 60 64 65 63 60 58 58 57 55 53 50 48 48 50 52 52 50 47 45
0 0 0 0 0 0 0 0 0 0 0 0 2 7 16 25 33 37 39 40 42 47 53 55 53 53 55 59 61 59 58 61 61 59 56 54 52 53 55 55 55 54 51 48
0 0 0 0 0 0 0 0 0 0 0 2 5 10 16 26 34 38 40 42 45 49 54 55 53 49 49 52 57 58 58 59 60 59 56 55 55 56 57 57 56 55 52 51
0 0 0 0 0 0 0 0 0 0 1 4 8 12 18 27 34 37 40 43 48 52 55 54 51 48 48 52 56 58 57 57 56 55 54 54 54 55 55 55 54 53 52 52
0 0 0 0 0 0 0 0 1 1 2 5 9 13 20 26 31 35 39 43 46 51 53 50 46 45 48 53 58 59 56 54 53 53 53 54 54 53 52 50 49 48 49 50
0 0 0 0 0 0 1 1 2 2 3 6 10 15 20 23 28 35 39 42 44 46 45 43 40 41 46 50 54 56 54 52 52 51 51 52 53 51 48 46 44 44 44 44
0 0 0 0 0 0 2 3 5 6 7 10 14 18 22 26 33 38 39 40 40 38 35 33 31 35 40 43 45 48 48 48 49 50 49 49 49 46 42 41 40 40 40 39
0 0 0 0 0 1 3 6 10 14 14 14 18 23 27 33 38 39 38 36 32 28 26 24 23 26 33 36 36 37 39 40 42 45 47 46 44 40 37 36 37 38 38 37
1 2 2 2 4 6 7 10 16 20 20 18 20 24 29 34 36 35 33 29 24 20 20 19 18 21 26 30 31 31 33 35 36 37 38 38 38 36 35 34 35 37 38 36
4 5 6 7 8 10 12 15 21 23 20 18 19 23 27 29 31 30 27 22 18 17 17 19 20 20 21 23 26 27 30 33 34 32 31 30 31 32 33 32 32 33 34 33
5 6 8 9 11 11 13 17 22 23 19 16 18 21 23 23 24 23 20 16 14 15 17 20 20 19 17 17 18 22 27 31 32 30 28 26 25 27 29 28 25 25 24 23
3 4 7 10 11 11 12 15 19 21 20 17 18 20 20 19 18 16 14 12 11 14 17 19 19 17 14 13 14 19 24 28 30 29 26 24 24 25 26 24 20 17 14 12

GEFSCGP_con_prob3kmehi_198.txt.gz
EHI
0 0 0 0 0 0 0 0 0 0 0 0 0 2 7 10 13 21 30 36 39 42 46 49 50 51 61 72 73 62 52 47 41 36 34 33 30 26 26 30 34 30 21 16
0 0 0 0 0 0 0 0 0 0 0 0 0 1 4 8 12 18 27 34 39 44 52 57 55 57 67 77 76 66 57 51 44 38 37 35 30 26 27 33 35 29 20 16
0 0 0 0 0 0 0 0 0 0 0 0 0 0 2 6 9 14 21 29 36 45 57 64 63 63 73 81 80 72 67 60 50 43 39 38 36 31 32 38 40 32 22 17
0 0 0 0 0 0 0 0 0 0 0 0 0 0 1 4 7 10 16 23 31 43 57 67 68 67 72 79 81 81 78 70 58 48 42 42 43 39 39 44 45 39 30 25
0 0 0 0 0 0 0 0 0 0 0 0 0 0 1 3 5 8 12 17 25 36 51 65 71 70 69 76 83 85 83 77 67 55 47 45 45 43 43 47 48 45 41 37
0 0 0 0 0 0 0 0 0 0 0 0 0 0 0 1 3 6 9 14 20 30 44 60 71 73 72 77 84 86 84 81 73 62 53 49 45 42 44 48 49 47 45 45
0 0 0 0 0 0 0 0 0 0 0 0 0 0 0 0 1 4 7 13 21 28 38 54 69 77 79 83 88 89 87 83 75 66 60 55 50 45 45 45 46 45 44 43
0 0 0 0 0 0 0 0 0 0 0 0 0 0 1 1 2 4 7 13 21 29 36 48 63 76 83 87 91 92 90 84 76 70 67 63 58 50 45 44 44 44 43 42
0 0 0 0 0 0 0 0 0 0 0 0 0 1 3 3 3 5 8 13 21 28 35 45 57 71 82 88 92 94 92 87 81 76 73 70 65 54 45 44 45 44 45 45
0 0 0 0 0 0 0 0 0 0 0 0 1 3 6 7 5 5 9 15 23 30 36 44 52 65 78 85 90 92 93 90 86 81 76 72 68 59 49 46 45 46 50 52
0 0 0 0 0 0 0 0 0 0 0 0 1 4 7 9 8 7 10 18 26 32 38 44 52 63 73 81 86 91 92 90 88 85 79 75 72 67 59 53 50 50 54 56
0 0 0 0 0 0 0 0 0 0 0 0 1 3 6 9 11 12 17 26 34 39 43 49 57 65 71 78 84 88 89 88 87 87 84 82 81 77 70 62 57 55 55 55
0 0 0 0 0 0 0 0 0 0 0 0 1 4 8 11 14 19 27 38 46 50 54 59 66 71 73 76 82 84 83 82 83 83 85 86 86 83 77 69 64 59 57 57
0 0 0 0 0 0 0 0 0 0 0 0 3 9 14 16 18 22 32 44 55 61 65 70 75 78 77 79 81 80 78 78 78 79 82 84 85 83 78 71 67 64 61 60
0 0 0 0 0 0 0 0 0 0 0 2 7 14 20 23 24 28 35 47 57 64 69 74 79 82 83 83 81 77 76 77 78 78 80 82 82 80 74 68 65 64 62 59
0 0 0 0 0 0 0 0 0 0 0 3 9 17 24 29 31 35 41 51 57 62 66 72 76 80 83 83 79 75 74 76 77 78 78 79 77 74 69 65 63 62 60 57
0 0 0 0 0 0 0 0 0 0 1 4 10 17 26 34 39 41 47 55 58 59 62 66 68 70 73 74 73 72 71 71 73 76 75 74 71 67 66 65 63 61 58 55
0 0 0 0 0 0 0 1 2 1 2 6 13 20 29 36 41 43 47 52 55 56 58 59 59 60 60 63 67 69 68 67 69 71 70 67 64 62 63 63 61 58 55 54
0 0 0 0 0 0 0 1 2 3 4 9 17 24 29 33 37 41 43 45 48 51 52 52 53 54 55 59 65 67 65 62 64 66 66 62 59 58 59 58 57 55 53 53
0 0 0 0 0 0 0 1 2 4 8 14 20 25 28 32 37 40 41 41 43 43 43 44 47 50 52 57 63 65 61 56 58 61 61 57 54 54 53 53 54 53 51 50
0 0 0 0 0 1 3 5 7 9 14 20 25 30 35 40 43 43 42 43 41 39 37 36 38 42 46 52 58 59 56 51 50 52 50 48 47 46 47 50 52 51 48 46
1 1 0 1 2 6 11 14 16 17 20 24 30 35 41 44 45 43 42 41 37 35 33 31 32 36 40 44 48 51 50 45 41 40 39 40 41 41 42 46 47 46 43 41
3 2 2 3 7 12 17 19 21 22 22 24 28 32 36 38 39 38 37 34 30 29 30 29 28 30 33 35 38 42 42 38 35 34 34 34 37 39 40 40 40 39 37 35
4 5 5 7 10 13 17 19 20 20 19 19 21 25 28 31 32 32 32 30 27 27 27 26 24 25 26 26 29 35 37 36 35 36 36 33 33 35 35 33 31 30 29 28
4 6 9 10 11 13 16 19 18 16 16 16 19 22 25 26 27 26 27 27 26 25 24 23 23 23 22 21 23 28 34 37 38 38 37 32 29 29 28 25 21 18 17 17
4 7 11 13 14 14 16 18 16 14 15 18 20 23 23 24 24 24 24 23 23 24 23 23 24 23 19 18 20 26 33 37 39 38 35 29 25 25 25 21 15 10 9 9

GEFSCGP_con_prob3kmehi_204.txt.gz
EHI
0 0 0 0 0 0 0 0 0 0 0 1 2 3 4 4 3 4 7 11 15 16 20 28 34 38 39 33 29 26 21 16 15 15 13 9 5 3 2 1 1 2 2 2
0 0 0 0 0 0 0 0 0 0 0 0 2 3 3 3 4 5 9 14 17 19 25 34 43 49 49 41 34 30 24 19 16 14 12 8 5 2 1 1 1 1 2 3
0 0 0 0 0 0 0 0 0 0 0 0 1 2 1 2 4 7 12 17 22 26 32 41 52 60 59 51 43 38 33 26 20 15 12 9 7 5 4 3 2 1 2 3
0 0 0 0 0 0 0 0 0 0 0 0 1 1 1 1 4 8 15 22 27 30 35 43 54 62 62 58 53 49 42 33 26 20 15 12 11 9 7 5 3 2 2 3
0 0 0 0 0 0 0 0 0 0 0 0 0 0 1 3 5 8 16 23 27 30 35 42 51 58 60 61 60 55 48 40 31 26 21 17 14 11 9 8 7 5 4 5
0 0 0 0 0 0 0 0 0 0 0 0 0 0 1 4 5 8 16 22 23 27 33 40 46 52 57 61 63 62 57 47 38 33 28 22 18 15 14 15 14 12 9 8
0 0 0 0 0 0 0 0 0 0 0 0 0 0 1 3 4 7 15 21 21 24 31 37 43 51 58 63 66 67 65 57 48 42 35 28 23 20 20 21 22 19 14 11
0 0 0 0 0 0 0 0 0 0 0 0 0 1 2 3 5 9 17 24 25 28 34 39 44 52 62 69 71 71 69 64 58 53 44 35 29 25 23 25 24 21 17 13
0 0 0 0 0 0 0 0 0 0 0 0 0 2 3 5 7 13 21 28 29 32 38 42 46 52 62 73 76 73 69 66 63 59 50 40 33 27 25 25 23 20 17 15
0 0 0 0 0 0 0 0 0 0 0 0 0 1 3 6 10 17 26 32 31 32 37 44 48 52 59 67 74 73 67 64 62 57 49 40 34 30 28 27 24 20 18 17
0 0 0 0 0 0 0 0 0 0 0 0 0 1 3 7 12 19 29 34 34 34 36 42 48 52 55 61 66 66 64 62 61 56 48 41 36 32 31 29 27 24 22 21
0 0 0 0 0 0 0 0 0 0 0 0 0 0 4 10 16 23 29 33 36 38 38 40 46 51 54 57 60 60 61 64 63 58 51 45 39 35 31 28 27 25 22 20
0 0 0 0 0 0 0 0 0 0 0 0 0 1 7 16 22 26 29 32 37 42 42 42 45 50 51 52 53 54 56 60 60 57 54 48 43 38 32 28 25 23 19 17
0 0 0 0 0 0 0 0 0 0 0 0 0 2 10 20 25 27 30 34 38 44 45 42 42 45 44 43 44 46 48 51 53 54 54 51 46 40 33 28 25 23 20 18
0 0 0 0 0 0 0 0 0 0 0 1 2 5 11 19 24 28 34 38 41 45 46 42 38 37 37 36 37 39 42 45 50 53 53 51 47 41 33 28 26 26 24 24
0 0 0 0 0 0 0 0 0 1 2 3 6 9 13 18 22 28 36 40 42 45 44 40 35 32 31 31 33 35 36 40 47 51 50 49 46 41 34 29 27 27 26 26
0 0 0 0 0 0 0 0 1 2 4 6 10 13 16 20 23 27 34 38 40 42 41 37 33 30 28 27 29 30 29 32 39 44 45 45 45 42 38 34 30 29 27 27
0 0 0 0 0 0 0 0 1 3 7 11 15 19 23 26 27 28 30 32 36 39 39 36 34 32 29 25 24 25 25 28 33 37 38 39 42 43 40 37 34 32 29 28
0 0 0 0 0 0 0 0 1 5 11 17 21 26 29 32 33 31 29 30 32 34 35 34 34 34 30 26 23 23 24 26 29 30 31 33 36 39 38 37 36 34 31 30
0 0 0 0 0 0 1 2 3 7 14 19 22 25 29 31 32 29 27 27 29 29 28 28 29 30 28 25 23 22 21 21 22 23 24 27 31 33 33 33 33 32 31 32
0 0 0 0 0 0 2 3 4 7 12 16 17 19 23 26 27 25 23 23 24 24 22 21 22 22 21 20 19 17 15 14 14 16 19 23 28 29 27 27 27 27 28 29
0 0 0 0 0 1 2 3 4 6 10 12 11 12 17 21 21 20 18 17 17 17 16 15 14 13 12 12 11 11 10 10 9 10 14 18 22 24 22 20 20 21 22 22
0 0 1 2 2 2 3 4 6 8 11 11 9 9 12 15 16 14 12 12 12 12 11 10 9 7 5 5 5 5 6 7 7 7 9 12 15 17 16 14 13 14 14 14
0 1 2 5 5 4 4 5 8 11 13 12 10 9 11 12 11 9 7 7 7 7 7 6 5 3 1 1 1 1 2 4 4 4 5 8 10 11 11 9 7 7 7 7
0 1 2 5 6 5 5 5 8 12 14 13 11 10 11 11 8 5 4 3 2 2 2 2 2 1 0 0 0 0 0 1 1 1 3 6 7 7 7 6 4 2 2 3
0 0 1 2 4 4 5 5 8 12 13 12 11 10 10 9 6 3 1 0 0 0 0 0 1 0 0 0 0 0 0 0 0 0 2 4 5 5 6 5 3 1 0 1

GEFSCGP_con_prob3kmehi_210.txt.gz
EHI
0 0 0 0 0 0 0 0 0 0 0 0 0 0 0 0 0 2 4 4 4 4 2 1 3 5 6 5 4 2 1 1 1 1 0 0 0 0 0 0 0 0 1 1
0 0 0 0 0 0 0 0 0 0 0 0 0 0 0 0 0 1 3 4 5 5 3 2 4 7 8 7 6 4 2 3 3 3 2 1 0 0 0 0 0 1 2 2
0 0 0 0 0 0 0 0 0 0 0 0 0 0 0 0 0 0 2 4 6 6 5 4 5 7 8 8 8 7 5 6 7 7 7 4 2 2 2 1 1 1 2 3
0 0 0 0 0 0 0 0 0 0 0 0 0 0 0 0 0 0 1 3 5 7 6 6 6 7 8 10 10 10 10 9 8 9 10 9 6 5 4 4 2 2 3 4
0 0 0 0 0 0 0 0 0 0 0 0 0 0 0 0 0 0 0 2 5 7 7 7 9 8 10 13 14 14 14 11 8 8 11 11 8 6 5 4 4 4 5 5
0 0 0 0 0 0 0 0 0 0 0 0 0 0 0 0 0 0 1 3 6 8 9 10 12 13 15 17 18 17 15 10 7 8 10 10 9 7 6 4 4 5 6 6
0 0 0 0 0 0 0 0 0 0 0 0 0 0 0 0 0 1 3 4 7 10 12 14 18 20 23 24 23 20 16 12 10 10 9 9 9 8 6 4 4 5 6 6
0 0 0 0 0 0 0 0 0 0 0 0 0 0 0 0 0 1 3 6 8 12 15 18 22 26 30 32 30 27 22 19 17 14 10 10 11 10 8 5 5 5 6 6
0 0 0 0 0 0 0 0 0 0 0 0 0 0 0 0 0 1 4 8 11 14 17 21 25 30 35 37 37 34 30 27 23 20 15 12 13 14 12 10 9 8 7 7
0 0 0 0 0 0 0 0 0 0 0 0 0 0 0 0 0 0 4 9 11 13 18 23 27 32 36 38 40 38 35 31 27 25 23 19 17 18 17 16 14 11 10 10
0 0 0 0 0 0 0 0 0 0 0 0 0 0 0 0 0 0 3 8 11 13 18 21 25 32 35 38 40 40 36 33 30 29 30 27 24 24 22 20 19 17 15 14
0 0 0 0 0 0 0 0 0 0 0 0 0 0 0 1 3 5 7 10 14 16 19 22 26 32 37 38 39 39 36 34 32 32 33 31 27 27 27 25 23 21 18 15
0 0 0 0 0 0 0 0 0 0 0 0 0 0 0 3 9 13 14 16 17 18 20 24 29 34 38 39 38 37 35 34 32 33 34 32 29 28 28 28 24 19 16 14
0 0 0 0 0 0 0 0 0 0 0 0 0 0 1 5 13 17 17 18 18 17 18 24 31 34 35 35 35 35 34 33 32 33 35 34 33 31 29 29 25 18 13 12
0 0 0 0 0 0 0 0 0 0 0 0 0 1 2 5 11 15 16 17 18 16 15 21 27 30 30 29 29 31 32 32 31 31 31 31 31 31 30 28 25 19 14 11
0 0 0 0 0 0 0 0 0 0 0 0 0 1 3 7 11 14 16 17 17 16 16 19 24 26 25 23 22 25 29 30 29 27 25 24 23 24 24 24 23 21 17 15
0 0 0 0 0 0 0 0 0 0 0 0 0 2 6 11 13 14 16 17 19 20 19 19 21 22 21 21 20 22 25 27 25 21 19 17 16 18 18 19 20 20 18 17
0 0 0 0 0 0 0 0 0 0 0 1 2 5 10 14 15 14 16 19 21 22 21 20 19 19 19 20 20 20 21 22 21 18 15 13 13 15 17 17 17 16 16 17
0 0 0 0 0 0 0 0 0 0 1 3 7 11 15 17 16 14 15 17 18 18 19 20 20 19 18 18 19 19 19 18 17 15 12 10 11 12 14 16 14 14 15 17
0 0 0 0 0 0 0 0 1 0 1 4 11 16 17 16 14 13 15 17 16 16 17 19 19 18 16 14 15 16 17 16 14 12 11 10 10 10 12 12 12 11 12 14
0 0 0 0 0 0 0 0 0 0 1 4 10 14 15 14 13 13 16 18 18 17 17 16 14 12 10 9 10 11 12 12 10 9 9 9 9 9 9 9 9 9 9 10
0 0 0 0 0 0 0 0 0 0 1 4 7 9 10 11 14 16 17 17 18 18 15 12 9 6 4 5 5 6 7 8 7 7 7 8 8 7 7 7 9 9 10 10
0 0 1 1 1 1 0 0 0 1 3 5 5 5 7 8 11 14 14 13 14 14 11 7 5 3 3 3 4 4 4 5 5 5 5 6 7 7 6 7 9 11 12 14
1 1 2 3 3 3 1 0 0 1 4 6 5 5 6 6 7 8 8 7 8 8 6 3 2 3 3 3 3 2 2 2 3 3 4 5 5 6 5 5 7 9 13 16
2 2 3 3 4 3 2 0 0 1 4 5 5 6 6 5 4 4 4 3 3 3 2 1 1 2 2 2 1 1 1 0 1 1 2 3 2 2 2 2 3 5 8 9
1 2 2 2 2 2 1 0 0 1 3 4 6 6 5 4 4 3 3 2 1 1 1 1 1 1 1 1 0 0 0 0 0 0 1 1 1 1 0 0 1 2 3 3

GEFSCGP_con_prob3kmehi_216.txt.gz
EHI
0 0 0 0 0 0 0 0 0 0 0 0 0 0 1 3 5 7 11 14 12 9 8 8 6 4 5 7 10 12 13 11 10 7 3 1 0 0 0 0 1 2 4 4
0 0 0 0 0 0 0 0 0 0 0 0 0 0 1 2 4 6 10 12 13 10 10 11 9 7 7 9 11 13 15 15 14 11 6 3 2 2 2 2 2 4 6 6
0 0 0 0 0 0 0 0 0 0 0 0 0 0 0 1 2 5 8 11 13 13 13 16 15 11 9 11 13 15 20 23 21 16 10 7 7 6 5 5 5 5 6 8
0 0 0 0 0 0 0 0 0 0 0 0 0 0 0 1 2 5 8 12 14 14 16 19 19 14 11 12 14 19 27 31 28 22 15 11 9 6 5 5 4 4 5 7
0 0 0 0 0 0 0 0 0 0 0 0 0 0 0 1 2 5 8 12 15 16 17 18 18 16 13 12 14 22 32 37 35 29 21 15 10 6 5 5 5 5 6 7
0 0 0 0 0 0 0 0 0 0 0 0 0 0 0 0 1 2 6 10 13 15 17 18 19 19 17 16 18 26 36 41 39 32 23 17 13 10 9 8 8 8 9 11
0 0 0 0 0 0 0 0 0 0 0 0 0 0 1 1 0 2 7 10 11 12 16 20 25 26 26 26 28 33 40 43 39 31 25 21 18 15 13 12 11 10 11 12
0 0 0 0 0 0 0 0 0 0 0 0 0 1 1 1 2 5 10 12 12 12 14 19 26 29 31 33 35 38 42 42 37 30 27 26 23 18 14 14 13 11 11 11
0 0 0 0 0 0 0 0 0 0 0 0 0 1 1 1 4 10 14 15 15 14 14 16 22 27 29 31 34 36 40 40 36 31 29 28 25 22 18 19 19 17 15 14
0 0 0 0 0 0 0 0 0 0 0 0 0 0 1 3 7 13 16 15 15 15 15 15 20 26 28 29 30 33 38 39 35 32 29 25 24 24 24 26 27 27 25 25
0 0 0 0 0 0 0 0 0 0 0 0 0 1 3 6 9 13 17 15 14 16 17 18 22 27 30 32 33 36 38 39 37 35 32 27 24 25 28 33 35 35 35 35
0 0 0 0 0 0 0 0 0 0 0 0 0 1 5 9 12 15 17 17 17 20 23 26 29 33 36 39 43 45 44 42 41 40 39 36 32 31 34 38 39 40 39 38
0 0 0 0 0 0 0 0 0 0 0 0 0 1 4 8 12 16 18 19 22 25 28 33 40 43 43 45 50 52 51 48 46 47 48 47 44 41 40 41 41 40 39 39
0 0 1 0 0 0 0 0 0 0 0 0 0 1 3 7 11 14 18 22 25 27 30 36 44 47 46 47 50 52 51 50 50 53 55 54 52 47 44 43 42 40 39 39
0 0 0 0 0 0 0 0 0 0 0 0 0 2 6 10 12 14 16 21 24 26 30 36 40 41 43 46 46 46 46 47 50 54 55 54 52 50 49 47 44 42 40 39
0 0 0 0 0 0 0 0 0 0 1 1 2 8 14 16 16 14 14 18 22 25 30 33 33 34 37 41 42 41 43 43 46 49 49 48 49 50 50 47 44 43 42 42
0 0 0 0 0 0 0 1 1 1 1 2 7 15 20 20 18 13 13 18 21 24 28 30 29 30 33 37 38 39 42 42 43 44 43 44 46 46 43 39 39 41 41 42
0 0 0 0 0 0 0 2 2 1 2 5 12 19 22 21 16 13 14 16 19 23 27 30 30 30 30 33 35 37 39 41 40 40 40 40 40 38 34 33 35 38 38 38
0 0 0 0 0 0 1 2 3 3 5 10 15 20 22 18 13 13 14 15 17 22 27 29 31 30 29 31 32 33 35 36 35 35 35 33 30 30 29 29 32 36 37 38
0 0 0 0 0 1 2 2 4 6 10 16 19 21 21 18 14 14 15 15 17 22 26 28 27 27 26 27 27 27 29 30 29 28 27 24 21 22 23 24 25 29 34 37
0 0 0 0 0 1 3 4 6 11 15 18 21 21 21 20 19 18 17 16 17 22 26 26 25 23 21 22 23 22 23 24 25 23 20 16 14 14 16 17 18 20 25 29
0 0 0 0 1 2 4 6 9 13 16 18 19 21 21 21 20 20 19 17 17 20 22 22 21 20 20 21 21 19 19 19 20 18 16 13 11 10 11 12 12 14 18 21
0 1 1 1 2 3 4 6 8 10 13 16 18 19 19 18 18 18 17 17 16 16 16 16 16 18 20 20 18 16 15 15 14 12 12 12 12 11 11 11 12 13 15 17
1 2 2 3 3 4 4 4 4 6 10 14 16 17 16 15 16 15 14 13 13 13 13 12 14 17 18 16 14 11 11 10 9 9 10 12 13 13 12 13 12 12 13 14
2 3 4 3 3 3 3 4 3 5 8 10 11 12 12 12 13 12 10 9 9 10 11 12 13 15 15 13 10 7 6 6 6 7 9 12 12 11 11 11 9 8 8 8
3 4 5 4 3 3 4 4 4 4 5 6 7 8 8 9 10 9 7 7 8 8 9 11 11 12 11 10 7 5 4 4 4 5 7 10 11 10 10 8 5 3 3 3

GEFSCGP_con_prob3kmehi_222.txt.gz
EHI
0 0 0 0 0 0 0 0 0 0 0 0 0 0 4 10 13 16 22 28 32 33 38 42 41 42 50 59 59 52 44 38 31 25 20 19 16 11 9 14 23 25 19 15
0 0 0 0 0 0 0 0 0 0 0 0 0 0 3 8 12 15 21 28 33 37 46 54 52 49 58 67 65 57 49 44 35 26 19 18 17 14 13 19 27 28 21 17
0 0 0 0 0 0 0 0 0 0 0 0 0 0 1 5 10 15 19 27 35 42 54 63 62 60 66 73 70 63 60 55 43 32 22 19 22 23 25 30 34 32 25 21
0 0 0 0 0 0 0 0 0 0 0 0 0 0 0 2 7 12 17 25 34 43 54 63 65 64 67 71 70 68 68 63 52 40 30 25 26 29 35 40 39 34 28 24
0 0 0 0 0 0 0 0 0 1 1 1 0 0 0 1 4 8 12 21 32 40 49 59 65 66 66 67 68 71 72 67 58 46 36 30 27 28 35 40 39 35 30 27
0 0 0 0 0 0 0 0 1 2 2 1 0 0 1 2 4 5 8 15 27 36 44 56 66 69 68 66 67 73 75 69 60 50 41 35 29 30 35 38 37 33 31 30
0 0 0 0 0 0 0 0 1 1 1 0 0 1 4 7 9 10 11 14 23 33 43 54 65 71 71 68 70 76 77 72 64 55 48 42 36 34 37 39 37 32 31 30
0 0 0 0 0 0 0 0 0 0 0 0 1 4 9 13 15 17 17 17 21 30 39 49 61 68 69 70 74 79 80 75 68 59 52 48 44 37 36 38 36 32 28 27
0 0 0 0 0 0 0 0 0 0 0 0 2 7 12 16 17 18 18 18 20 25 33 42 54 62 64 68 74 79 82 79 72 65 58 53 49 43 37 36 35 32 28 26
0 0 0 0 0 0 0 0 0 0 0 0 2 6 12 16 17 15 14 16 19 23 29 37 45 52 56 61 68 76 82 80 75 71 65 59 55 50 43 39 37 35 32 32
0 0 0 0 0 0 0 0 0 0 0 0 1 6 12 15 14 12 13 16 19 22 27 34 40 45 50 54 61 72 80 80 76 75 72 69 66 62 55 48 44 43 43 44
0 0 0 0 0 0 0 0 0 0 0 0 1 5 11 12 11 12 15 19 20 21 25 33 39 44 49 55 62 71 77 78 77 77 79 79 78 73 65 58 54 53 54 56
0 0 0 0 0 0 0 0 0 0 0 0 1 4 10 12 14 17 22 25 24 24 25 31 40 47 53 60 67 72 74 74 74 76 79 81 79 74 68 63 62 60 59 59
0 0 0 0 0 0 0 0 0 1 0 0 1 4 10 17 21 25 30 32 29 29 30 32 39 48 55 61 67 70 71 70 70 72 74 74 72 68 64 63 64 63 59 55
0 0 0 0 0 0 0 0 0 0 0 0 2 5 13 22 27 31 35 35 33 35 36 38 43 50 55 59 63 65 68 70 71 71 70 68 64 62 63 64 64 61 56 52
0 0 0 0 0 0 0 0 0 0 0 1 3 9 17 26 31 34 36 36 36 38 39 41 47 53 56 58 58 59 62 66 70 70 67 63 60 60 61 62 61 57 52 50
0 0 0 0 0 0 0 0 0 1 2 4 8 16 24 30 34 36 38 37 38 39 38 39 45 52 56 56 55 54 55 57 61 62 59 55 55 56 56 56 55 52 50 49
0 0 0 0 0 0 1 1 1 3 7 10 15 24 29 32 33 36 37 38 38 37 36 35 38 44 50 51 50 49 49 49 50 51 48 45 46 48 48 50 50 49 48 48
1 1 0 0 0 0 1 1 1 4 10 14 20 28 32 31 29 30 33 35 36 35 33 33 33 38 44 46 45 45 45 45 44 42 40 38 39 39 41 45 47 45 44 44
0 0 0 0 0 1 2 1 1 4 11 15 22 30 33 30 27 27 29 32 32 32 31 32 34 38 41 42 42 42 40 41 41 41 39 38 37 37 39 41 42 41 40 39
0 0 0 0 1 3 4 5 5 9 15 19 23 29 32 31 29 29 28 30 31 31 32 33 36 38 39 39 39 38 37 37 39 40 39 37 35 35 36 36 35 35 35 34
0 1 1 1 3 5 9 11 14 18 21 22 23 26 28 27 26 27 28 29 30 32 33 33 34 34 34 35 36 36 35 36 36 36 35 33 31 29 29 29 28 28 28 27
2 3 3 4 5 8 11 14 17 20 21 19 19 22 24 22 20 24 27 28 29 30 32 32 31 31 31 32 33 33 32 34 33 31 29 27 25 23 23 23 22 22 22 22
4 5 5 4 5 7 10 12 13 15 16 15 16 18 19 19 18 22 27 29 29 28 29 29 29 30 31 32 32 31 30 29 28 26 23 20 17 17 18 18 18 17 17 17
4 6 6 4 5 6 8 10 11 12 13 13 13 14 16 18 18 21 26 28 26 24 23 24 26 29 30 31 31 31 29 26 24 21 17 14 12 12 14 14 13 11 10 10
3 5 6 5 5 7 8 9 11 12 13 13 13 13 15 16 17 20 25 25 22 20 20 22 25 27 28 29 30 29 27 25 23 19 14 11 10 11 12 11 9 7 5 4

GEFSCGP_con_prob3kmehi_228.txt.gz
EHI
0 0 0 0 0 0 0 0 0 1 2 3 3 5 7 9 11 10 9 11 12 14 19 23 26 29 32 32 26 24 21 15 9 5 2 1 1 2 2 1 1 2 4 6
0 0 0 0 0 0 0 0 0 1 2 3 3 4 6 9 11 10 9 11 14 18 23 28 32 35 36 35 30 26 23 19 13 7 3 1 0 1 2 2 2 4 6 7
0 0 0 0 0 0 0 0 0 0 1 1 2 3 4 8 11 11 10 10 14 20 25 31 38 41 40 38 35 31 27 23 19 13 8 6 4 3 3 3 4 6 8 10
0 0 0 0 0 0 0 0 0 0 0 0 1 1 3 6 10 12 12 10 12 17 23 32 40 44 43 40 37 34 31 27 24 20 17 15 12 9 6 4 5 7 9 11
0 0 0 0 0 0 0 0 0 0 0 0 0 0 2 5 9 12 14 12 12 16 23 31 39 44 43 41 39 37 35 32 28 25 23 21 18 14 11 7 7 8 9 10
0 0 0 0 0 0 0 0 0 0 0 0 0 1 2 4 7 12 16 16 15 19 25 30 36 42 42 42 43 43 40 37 32 28 24 21 20 17 15 13 10 9 8 8
0 0 0 0 0 0 0 0 0 0 0 0 1 2 2 3 6 12 17 19 18 20 23 26 33 40 43 44 48 51 49 43 38 33 26 22 21 19 17 16 14 11 8 6
0 0 0 0 0 0 0 0 0 0 0 0 1 2 3 3 5 11 16 19 19 18 19 21 27 35 42 46 52 56 55 50 45 40 32 25 21 20 18 18 17 14 10 8
0 0 0 0 0 0 0 0 0 0 0 0 0 1 2 3 4 8 13 16 17 16 16 18 23 29 38 46 55 59 58 55 51 46 39 29 23 21 20 20 20 18 16 14
0 0 0 0 0 0 0 0 0 0 0 0 0 1 2 3 4 6 11 15 16 16 17 22 26 31 37 46 55 59 59 56 53 51 45 34 27 24 24 24 24 22 19 17
0 0 0 0 0 0 0 0 0 0 0 0 0 0 2 3 5 7 11 14 17 20 23 26 30 34 39 45 50 55 57 55 53 51 46 38 32 29 28 27 25 23 20 18
0 0 0 0 0 0 0 0 0 0 0 0 0 1 3 5 8 10 12 13 18 23 25 25 28 33 38 42 45 48 52 53 51 49 46 42 37 35 32 29 26 23 19 17
0 0 0 0 0 0 0 0 0 0 0 0 0 2 6 10 12 13 14 16 19 22 22 23 26 30 35 39 42 45 49 51 50 50 47 44 41 39 35 32 29 26 21 18
0 0 0 0 0 0 0 0 0 0 0 0 1 5 9 14 16 15 16 19 20 20 20 22 25 29 33 37 40 43 47 49 49 48 46 43 42 41 38 35 33 31 26 23
0 0 0 0 0 0 0 0 0 0 1 2 4 8 11 15 18 17 18 21 23 22 21 23 26 29 33 36 38 40 42 45 45 44 42 39 38 39 37 35 34 33 30 26
0 0 0 0 0 0 0 0 0 2 3 5 8 12 13 17 20 21 21 24 26 26 25 26 28 31 33 36 37 37 37 39 40 39 37 35 33 33 32 32 32 32 30 28
0 0 0 0 0 0 0 1 3 5 6 8 11 13 15 18 20 20 21 24 25 26 26 27 28 29 31 34 36 36 35 34 34 34 33 31 29 28 28 28 28 28 28 27
0 0 0 0 0 0 1 3 5 7 8 10 12 13 15 17 17 17 20 21 21 22 24 25 24 25 28 33 35 34 33 31 30 29 29 28 26 26 26 26 23 22 23 22
1 0 0 0 0 1 2 4 6 7 8 10 11 13 14 15 15 16 19 21 20 20 21 23 22 23 25 30 32 32 30 28 27 26 26 27 27 26 26 24 20 17 17 17
2 1 0 1 1 2 3 4 4 6 7 8 9 10 11 13 14 15 18 21 21 20 21 22 22 22 23 24 26 27 27 26 24 23 25 27 27 26 25 23 19 16 16 16
2 1 1 2 3 3 3 4 4 4 5 6 7 7 8 9 11 13 16 18 19 21 22 22 21 21 19 19 21 24 25 24 23 22 23 24 24 23 22 20 18 17 17 17
2 2 2 2 2 2 2 3 4 4 4 5 6 7 7 7 8 11 14 15 16 17 20 20 18 18 17 18 20 23 24 25 25 22 21 20 19 18 16 15 15 15 15 14
1 2 1 2 2 2 2 3 3 4 5 7 7 7 6 5 6 9 12 13 13 13 15 17 16 16 17 18 19 20 20 22 23 21 18 16 15 13 12 11 12 12 11 9
1 1 1 2 4 5 5 4 3 4 5 7 7 6 5 4 4 6 9 12 13 12 13 15 16 16 17 18 18 17 16 17 19 18 15 13 13 11 10 10 11 10 8 7
2 2 3 4 5 6 6 4 3 3 4 4 4 3 3 3 3 4 7 11 12 12 12 14 15 15 16 17 16 14 14 15 15 14 12 10 10 9 8 6 6 6 5 5
3 3 4 5 5 5 4 4 3 3 3 3 2 1 2 3 3 3 5 9 11 11 12 13 14 14 14 15 15 13 13 14 14 13 11 8 7 6 5 3 2 2 2 2

GEFSCGP_con_prob3kmehi_234.txt.gz
EHI
0 0 0 0 0 0 0 0 0 1 2 3 3 4 6 9 8 8 9 11 11 8 6 4 4 6 7 7 6 6 6 4 3 1 0 0 0 0 0 0 0 0 0 0
0 0 0 0 0 0 0 0 0 1 2 2 2 3 4 5 6 5 7 10 11 10 8 6 6 8 9 8 7 7 6 5 3 2 1 0 0 0 0 0 0 0 0 0
0 0 0 0 0 0 0 0 0 1 1 1 1 1 1 2 2 3 5 7 9 10 9 8 8 10 10 9 7 6 6 5 4 3 2 1 2 1 1 0 0 0 0 0
0 0 0 0 0 0 0 0 0 0 0 0 0 0 0 1 2 3 4 5 7 8 8 9 9 10 11 10 8 6 5 5 6 6 6 6 5 3 2 0 0 0 0 0
0 0 0 0 0 0 0 0 0 0 0 0 0 0 1 2 3 3 3 5 6 7 9 9 10 11 11 11 10 8 8 9 10 11 12 11 8 4 1 0 0 0 0 0
0 0 0 0 0 0 0 0 0 0 0 0 0 0 1 2 3 2 2 4 6 8 9 9 10 11 12 12 14 15 15 14 13 15 15 13 9 5 3 2 1 1 1 0
0 0 0 0 0 0 0 0 0 0 0 0 0 0 0 1 2 2 1 2 4 8 9 7 7 10 12 13 16 19 19 16 14 14 14 12 9 7 5 4 4 4 3 2
0 0 0 0 0 0 0 0 0 0 0 0 0 0 0 0 1 1 1 2 4 6 8 7 7 9 11 13 16 19 19 15 13 13 13 11 10 9 7 5 4 5 6 5
0 0 0 0 0 0 0 0 0 0 0 0 0 0 0 0 0 1 2 3 3 5 6 7 7 9 11 12 16 19 19 16 13 11 12 12 11 10 8 6 5 5 7 7
0 0 0 0 0 0 0 0 0 0 0 0 0 0 0 0 0 1 2 2 2 4 5 6 8 10 12 13 16 20 21 18 13 11 11 12 12 12 10 9 8 8 8 8
0 0 0 0 0 0 0 0 0 0 0 0 0 0 0 0 0 1 1 2 4 5 5 6 9 11 13 16 18 20 21 17 13 12 12 13 15 15 14 13 13 11 11 11
0 0 0 0 0 0 0 0 0 0 0 0 0 0 1 1 1 1 3 6 7 6 5 7 9 11 13 17 18 20 20 18 17 17 17 18 20 20 19 18 17 16 15 15
0 0 0 0 0 0 0 0 0 0 0 0 0 0 1 2 3 5 8 11 10 7 6 7 8 9 12 16 18 21 22 22 22 23 23 23 24 25 24 22 22 22 20 18
0 0 0 0 0 0 0 0 0 0 0 0 0 1 2 4 6 8 11 13 12 10 9 9 8 7 11 17 20 23 25 25 26 28 28 28 28 28 27 26 25 24 22 19
0 0 0 0 0 0 0 0 0 0 0 0 1 3 5 7 9 10 12 13 13 12 12 11 8 7 11 18 23 25 25 26 27 28 29 29 29 29 27 24 23 23 22 19
0 0 0 0 0 0 0 0 0 0 0 0 2 5 7 9 11 11 11 11 12 13 13 12 9 8 13 19 24 25 24 22 22 24 25 25 26 26 23 20 18 20 20 19
0 0 0 0 0 0 0 1 1 1 0 1 3 6 9 11 12 12 11 11 12 12 13 13 11 10 14 19 23 23 21 19 19 19 20 21 23 23 20 17 16 17 18 18
0 0 0 0 0 0 1 2 2 2 2 2 5 7 10 11 12 11 11 11 12 13 13 13 13 12 14 17 18 19 19 19 18 17 17 18 19 19 18 17 15 15 15 15
0 0 0 0 0 0 1 3 3 3 3 2 4 7 9 10 9 8 7 9 11 12 12 12 13 14 14 14 14 15 17 18 18 17 17 17 16 17 18 16 14 13 13 12
0 0 0 0 0 0 1 2 2 3 2 1 3 5 6 5 5 3 3 5 8 10 11 11 11 12 12 11 11 12 14 15 16 17 18 17 16 16 18 17 15 13 12 10
0 0 0 0 0 0 1 1 1 1 1 1 1 3 3 3 2 2 3 4 7 9 10 10 10 11 10 9 8 9 10 12 14 16 16 16 16 16 17 18 17 14 12 11
0 0 0 0 0 0 1 2 1 1 1 2 1 1 3 4 4 5 5 6 7 9 9 9 9 11 11 9 8 8 10 11 11 12 13 14 14 16 17 17 16 15 13 12
0 0 0 1 1 1 2 3 3 2 3 3 2 1 3 4 5 6 6 6 6 7 9 8 8 11 12 11 10 11 11 11 10 9 9 10 12 15 16 16 15 14 13 13
1 1 1 2 2 3 3 3 2 3 3 3 3 3 3 3 3 4 5 5 4 6 9 9 9 11 12 12 12 13 13 11 9 8 7 7 9 12 13 13 12 12 12 12
2 2 3 3 3 2 2 1 1 1 2 2 2 2 2 2 1 2 3 4 4 5 7 9 10 11 12 13 13 13 13 12 11 8 7 7 7 9 9 8 7 8 8 8
2 3 3 3 2 1 1 0 0 0 1 1 1 1 1 1 1 1 1 2 3 4 5 8 10 10 11 12 13 12 12 14 13 9 7 6 7 7 5 4 4 4 3 3

GEFSCGP_con_prob3kmehi_240.txt.gz
EHI
0 0 0 0 0 0 0 0 0 0 0 0 0 1 3 4 4 4 5 7 9 9 9 9 10 9 8 9 15 21 24 23 20 15 9 4 2 2 3 3 1 0 0 0
0 0 0 0 0 0 0 0 0 0 0 0 0 1 3 4 3 3 5 7 9 9 11 13 13 12 11 11 14 18 22 23 21 17 12 7 3 2 2 2 2 1 1 0
0 0 0 0 0 0 0 0 0 0 0 0 0 1 3 4 4 4 6 8 9 11 14 17 18 16 14 12 11 14 18 21 21 19 14 9 6 4 3 3 3 3 2 1
0 0 0 0 0 0 0 0 0 0 0 0 0 1 2 3 4 5 8 10 11 14 17 20 21 19 15 12 11 13 16 18 18 17 15 12 9 7 5 4 4 4 3 3
0 0 0 0 0 0 0 0 0 0 0 0 0 0 1 2 3 5 8 9 11 15 17 19 19 18 15 12 13 15 17 17 17 17 17 16 13 9 7 6 5 4 4 4
0 0 0 0 0 0 0 0 0 0 0 0 0 0 1 2 2 4 5 5 7 11 14 16 16 15 14 14 16 18 21 21 20 19 19 19 16 11 9 8 6 4 4 4
0 0 0 0 0 0 0 0 0 0 0 0 0 0 1 2 3 4 5 4 5 8 12 15 16 15 15 17 21 24 26 26 24 22 21 21 18 13 11 10 8 6 5 5
0 0 0 0 0 0 0 0 0 0 0 0 0 0 1 2 3 4 5 5 6 7 10 14 16 16 16 19 25 29 31 32 31 28 26 23 17 11 9 10 9 7 5 4
0 0 0 0 0 0 0 0 0 0 0 0 0 0 1 2 3 3 4 5 7 7 9 13 16 16 16 17 21 28 33 37 38 35 29 23 17 12 9 10 11 9 7 5
0 0 0 0 0 0 0 0 0 0 0 0 0 0 2 4 4 4 5 8 10 10 11 14 16 17 15 14 16 22 29 35 36 33 26 21 19 16 13 13 15 14 11 10
0 0 0 0 0 0 0 0 0 0 0 0 0 1 3 5 6 7 9 13 13 12 13 15 17 18 17 16 16 21 27 30 28 25 22 21 20 19 18 17 18 18 17 17
0 0 0 0 0 0 0 0 0 0 0 0 0 1 3 5 6 9 15 19 16 13 14 16 18 19 20 21 23 27 29 27 23 21 21 22 23 24 23 22 22 22 22 23
0 0 0 0 0 0 0 0 0 0 0 0 0 1 3 6 8 12 20 23 19 15 16 19 21 22 24 28 31 34 33 28 25 25 25 26 28 30 29 27 27 28 27 27
0 0 0 0 0 0 0 0 0 0 0 0 0 1 3 7 10 13 20 23 21 19 21 25 27 27 29 34 38 39 38 35 34 34 33 32 33 34 33 32 33 34 32 30
0 0 0 0 0 0 0 0 0 0 0 1 1 1 2 6 9 12 18 22 23 25 28 29 28 28 32 37 41 43 43 43 43 42 40 38 37 35 34 34 36 38 36 33
0 0 0 0 0 0 0 0 0 0 1 1 1 1 2 5 9 14 18 21 24 27 29 28 26 26 30 35 40 43 45 46 47 46 43 42 39 36 33 33 34 38 38 36
0 0 0 0 0 0 0 0 0 0 1 1 1 2 4 6 10 15 17 20 23 25 25 24 23 23 25 30 35 40 42 44 45 46 44 43 42 37 32 30 32 34 37 37
0 0 0 0 0 0 0 0 0 0 0 0 1 3 6 8 11 13 15 19 21 22 22 21 20 21 22 24 29 34 39 41 41 41 41 42 40 34 30 30 31 34 36 36
0 0 0 0 0 0 0 0 0 0 0 1 2 4 7 10 11 12 14 18 20 19 20 20 21 22 24 24 26 31 35 37 36 36 36 35 33 29 26 27 30 31 32 33
0 0 0 0 0 0 0 0 0 0 1 2 4 5 7 10 12 14 17 20 18 16 18 20 22 25 28 28 27 29 32 33 31 30 28 26 25 25 24 24 26 27 26 26
0 0 0 0 0 0 0 0 0 1 3 5 4 5 7 11 15 18 20 20 17 16 18 20 22 26 29 30 28 27 28 27 25 24 21 19 20 22 23 23 23 23 22 22
0 0 0 0 0 1 1 1 2 5 7 7 5 5 8 12 16 19 21 19 16 17 19 19 20 22 24 24 24 23 22 21 21 21 20 18 17 19 21 22 22 22 21 20
0 0 0 1 2 3 3 3 5 8 8 7 6 7 8 11 15 17 17 16 15 15 15 15 15 17 18 18 18 17 17 17 19 21 20 18 17 16 19 22 22 21 19 18
1 1 1 2 3 3 4 5 6 7 7 7 8 9 9 11 13 13 13 13 12 11 10 10 12 15 17 16 14 13 13 16 18 20 20 18 15 14 15 18 19 18 17 16
1 1 1 2 3 4 5 5 5 5 6 8 10 10 11 11 11 10 9 10 10 9 8 10 12 15 17 16 13 11 12 15 19 20 19 17 13 11 12 12 11 11 12 12
0 1 1 1 3 5 6 5 4 4 5 8 10 12 12 12 10 9 8 9 10 9 8 10 12 14 16 15 12 11 12 15 19 21 20 16 12 11 10 8 6 6 7 7